Time,TemperatureF,DewpointF,PressureIn,WindDirection,WindDirectionDegrees,WindSpeedMPH,WindSpeedGustMPH,Humidity,HourlyPrecipIn,Conditions,Clouds,dailyrainin,SoftwareType,DateUTC
2013-08-06 00:16:00,53.5,47.5,30.04,North,353,0.0,0.0,80,0.00,,---,0.00,VWS V14.01,2013-08-06 04:16:00,
2013-08-06 00:17:00,53.6,47.6,30.04,North,359,0.0,0.0,80,0.00,,---,0.00,VWS V14.01,2013-08-06 04:17:00,
2013-08-06 00:19:00,53.6,47.9,30.04,North,360,0.0,0.0,81,0.00,,---,0.00,VWS V14.01,2013-08-06 04:19:00,
2013-08-06 00:22:00,53.3,48.6,30.04,North,352,0.0,0.0,84,0.00,,---,0.00,VWS V14.01,2013-08-06 04:22:00,
2013-08-06 00:23:00,53.2,48.8,30.04,NNW,347,0.0,0.0,85,0.00,,---,0.00,VWS V14.01,2013-08-06 04:23:00,
2013-08-06 00:24:00,53.0,48.6,30.04,NNW,341,0.0,0.0,85,0.00,,---,0.00,VWS V14.01,2013-08-06 04:24:00,
2013-08-06 00:25:00,53.0,48.6,30.04,NNW,342,0.0,0.0,85,0.00,,---,0.00,VWS V14.01,2013-08-06 04:25:00,
2013-08-06 00:28:00,52.8,48.4,30.04,NNW,345,0.0,0.0,85,0.00,,---,0.00,VWS V14.01,2013-08-06 04:28:00,
2013-08-06 00:29:00,52.8,48.4,30.05,NNW,345,0.0,0.0,85,0.00,,---,0.00,VWS V14.01,2013-08-06 04:29:00,
2013-08-06 00:30:00,52.8,48.4,30.05,NNW,345,0.0,0.0,85,0.00,,---,0.00,VWS V14.01,2013-08-06 04:30:00,
2013-08-06 00:32:00,52.8,48.4,30.05,North,349,0.0,0.0,85,0.00,,---,0.00,VWS V14.01,2013-08-06 04:32:00,
2013-08-06 00:34:00,52.8,48.4,30.05,North,349,0.0,0.0,85,0.00,,---,0.00,VWS V14.01,2013-08-06 04:34:00,
2013-08-06 00:35:00,52.8,48.4,30.05,NNW,348,0.0,0.0,85,0.00,,---,0.00,VWS V14.01,2013-08-06 04:35:00,
2013-08-06 00:36:00,52.8,48.1,30.05,NNW,347,0.0,0.0,84,0.00,,---,0.00,VWS V14.01,2013-08-06 04:36:00,
2013-08-06 00:39:00,52.7,48.0,30.05,North,353,0.0,0.0,84,0.00,,---,0.00,VWS V14.01,2013-08-06 04:39:00,
2013-08-06 00:40:00,52.7,48.0,30.05,North,349,0.0,0.0,84,0.00,,---,0.00,VWS V14.01,2013-08-06 04:40:00,
2013-08-06 00:42:00,52.7,48.0,30.05,NNW,347,0.0,0.0,84,0.00,,---,0.00,VWS V14.01,2013-08-06 04:42:00,
2013-08-06 00:44:00,52.6,48.2,30.05,NNW,345,0.0,0.0,85,0.00,,---,0.00,VWS V14.01,2013-08-06 04:44:00,
2013-08-06 00:45:00,52.6,48.2,30.05,NNW,345,0.0,0.0,85,0.00,,---,0.00,VWS V14.01,2013-08-06 04:45:00,
2013-08-06 00:47:00,52.6,48.2,30.05,NNW,345,0.0,0.0,85,0.00,,---,0.00,VWS V14.01,2013-08-06 04:47:00,
2013-08-06 00:48:00,52.6,48.2,30.05,NNW,345,0.0,0.0,85,0.00,,---,0.00,VWS V14.01,2013-08-06 04:48:00,
2013-08-06 00:50:00,52.6,48.2,30.05,NNW,348,0.0,0.0,85,0.00,,---,0.00,VWS V14.01,2013-08-06 04:50:00,
2013-08-06 00:51:00,52.5,48.1,30.04,North,349,0.0,0.0,85,0.00,,---,0.00,VWS V14.01,2013-08-06 04:51:00,
2013-08-06 00:53:00,52.5,48.1,30.04,NNW,348,0.0,0.0,85,0.00,,---,0.00,VWS V14.01,2013-08-06 04:53:00,
2013-08-06 00:54:00,52.5,48.1,30.04,North,349,0.0,0.0,85,0.00,,---,0.00,VWS V14.01,2013-08-06 04:54:00,
2013-08-06 00:55:00,52.4,48.0,30.04,North,349,0.0,0.0,85,0.00,,---,0.00,VWS V14.01,2013-08-06 04:55:00,
2013-08-06 00:56:00,52.4,48.3,30.05,North,349,0.0,0.0,86,0.00,,---,0.00,VWS V14.01,2013-08-06 04:56:00,
2013-08-06 00:59:00,52.4,48.3,30.05,NNW,348,0.0,0.0,86,0.00,,---,0.00,VWS V14.01,2013-08-06 04:59:00,
2013-08-06 01:00:00,52.4,48.3,30.05,North,349,0.0,0.0,86,0.00,,---,0.00,VWS V14.01,2013-08-06 05:00:00,
2013-08-06 01:01:00,52.3,47.9,30.05,North,349,0.0,0.0,85,0.00,,---,0.00,VWS V14.01,2013-08-06 05:01:00,
2013-08-06 01:04:00,52.2,48.2,30.05,NNW,348,0.0,0.0,86,0.00,,---,0.00,VWS V14.01,2013-08-06 05:04:00,
2013-08-06 01:05:00,52.2,48.2,30.05,North,354,0.0,0.0,86,0.00,,---,0.00,VWS V14.01,2013-08-06 05:05:00,
2013-08-06 01:06:00,52.1,48.0,30.05,North,352,0.0,0.0,86,0.00,,---,0.00,VWS V14.01,2013-08-06 05:06:00,
2013-08-06 01:07:00,51.9,47.8,30.05,NNW,343,0.0,0.0,86,0.00,,---,0.00,VWS V14.01,2013-08-06 05:07:00,
2013-08-06 01:09:00,51.7,48.0,30.05,NNW,347,0.0,0.0,87,0.00,,---,0.00,VWS V14.01,2013-08-06 05:09:00,
2013-08-06 01:11:00,51.6,47.9,30.05,NNW,347,0.0,0.0,87,0.00,,---,0.00,VWS V14.01,2013-08-06 05:11:00,
2013-08-06 01:12:00,51.6,47.9,30.05,North,352,0.0,0.0,87,0.00,,---,0.00,VWS V14.01,2013-08-06 05:12:00,
2013-08-06 01:13:00,51.5,47.8,30.05,NNW,347,0.0,0.0,87,0.00,,---,0.00,VWS V14.01,2013-08-06 05:13:00,
2013-08-06 01:15:00,51.4,48.0,30.05,NNW,346,0.0,0.0,88,0.00,,---,0.00,VWS V14.01,2013-08-06 05:15:00,
2013-08-06 01:17:00,51.4,47.7,30.05,NNW,343,0.0,0.0,87,0.00,,---,0.00,VWS V14.01,2013-08-06 05:17:00,
2013-08-06 01:18:00,51.4,48.0,30.05,NNW,343,0.0,0.0,88,0.00,,---,0.00,VWS V14.01,2013-08-06 05:18:00,
2013-08-06 01:20:00,51.4,48.0,30.05,NNW,341,0.0,0.0,88,0.00,,---,0.00,VWS V14.01,2013-08-06 05:20:00,
2013-08-06 01:22:00,51.5,48.1,30.05,NNW,342,0.0,0.0,88,0.00,,---,0.00,VWS V14.01,2013-08-06 05:22:00,
2013-08-06 01:24:00,51.5,48.1,30.05,NNW,341,0.0,0.0,88,0.00,,---,0.00,VWS V14.01,2013-08-06 05:24:00,
2013-08-06 01:25:00,51.5,48.1,30.05,NNW,341,0.0,0.0,88,0.00,,---,0.00,VWS V14.01,2013-08-06 05:25:00,
2013-08-06 01:27:00,51.6,48.2,30.05,NNW,347,0.0,0.0,88,0.00,,---,0.00,VWS V14.01,2013-08-06 05:27:00,
2013-08-06 01:28:00,51.6,48.2,30.05,NNW,347,0.0,0.0,88,0.00,,---,0.00,VWS V14.01,2013-08-06 05:28:00,
2013-08-06 01:29:00,51.6,48.2,30.05,NNW,347,0.0,0.0,88,0.00,,---,0.00,VWS V14.01,2013-08-06 05:29:00,
2013-08-06 01:31:00,51.6,47.9,30.05,NNW,346,0.0,0.0,87,0.00,,---,0.00,VWS V14.01,2013-08-06 05:31:00,
2013-08-06 01:32:00,51.6,48.2,30.05,NNW,347,0.0,0.0,88,0.00,,---,0.00,VWS V14.01,2013-08-06 05:32:00,
2013-08-06 01:34:00,51.6,47.9,30.05,NNW,347,0.0,0.0,87,0.00,,---,0.00,VWS V14.01,2013-08-06 05:34:00,
2013-08-06 01:38:00,51.6,48.2,30.05,North,349,0.0,0.0,88,0.00,,---,0.00,VWS V14.01,2013-08-06 05:38:00,
2013-08-06 01:39:00,51.5,47.8,30.05,NNW,347,0.0,0.0,87,0.00,,---,0.00,VWS V14.01,2013-08-06 05:39:00,
2013-08-06 01:40:00,51.5,47.8,30.05,North,352,0.0,0.0,87,0.00,,---,0.00,VWS V14.01,2013-08-06 05:40:00,
2013-08-06 01:43:00,51.3,47.9,30.05,NNW,345,0.0,0.0,88,0.00,,---,0.00,VWS V14.01,2013-08-06 05:43:00,
2013-08-06 01:44:00,51.3,47.9,30.05,NNW,345,0.0,0.0,88,0.00,,---,0.00,VWS V14.01,2013-08-06 05:44:00,
2013-08-06 01:45:00,51.2,48.1,30.05,NNW,340,0.0,0.0,89,0.00,,---,0.00,VWS V14.01,2013-08-06 05:45:00,
2013-08-06 01:46:00,51.2,48.1,30.05,NNW,340,0.0,0.0,89,0.00,,---,0.00,VWS V14.01,2013-08-06 05:46:00,
2013-08-06 01:47:00,51.2,48.1,30.05,NNW,340,0.0,0.0,89,0.00,,---,0.00,VWS V14.01,2013-08-06 05:47:00,
2013-08-06 01:48:00,51.2,48.4,30.05,NNW,342,0.0,0.0,90,0.00,,---,0.00,VWS V14.01,2013-08-06 05:48:00,
2013-08-06 01:50:00,51.2,48.4,30.05,NNW,345,0.0,0.0,90,0.00,,---,0.00,VWS V14.01,2013-08-06 05:50:00,
2013-08-06 01:51:00,51.2,48.4,30.05,NNW,347,0.0,0.0,90,0.00,,---,0.00,VWS V14.01,2013-08-06 05:51:00,
2013-08-06 01:52:00,51.3,48.5,30.05,NNW,347,0.0,0.0,90,0.00,,---,0.00,VWS V14.01,2013-08-06 05:52:00,
2013-08-06 01:54:00,51.4,48.6,30.05,NNW,347,0.0,0.0,90,0.00,,---,0.00,VWS V14.01,2013-08-06 05:54:00,
2013-08-06 01:55:00,51.3,48.5,30.05,NNW,347,0.0,0.0,90,0.00,,---,0.00,VWS V14.01,2013-08-06 05:55:00,
2013-08-06 01:56:00,51.4,48.6,30.05,NNW,347,0.0,0.0,90,0.00,,---,0.00,VWS V14.01,2013-08-06 05:56:00,
2013-08-06 01:58:00,51.3,48.5,30.05,NNW,345,0.0,0.0,90,0.00,,---,0.00,VWS V14.01,2013-08-06 05:58:00,
2013-08-06 02:00:00,51.3,48.5,30.05,NNW,343,0.0,0.0,90,0.00,,---,0.00,VWS V14.01,2013-08-06 06:00:00,
2013-08-06 02:02:00,51.4,48.9,30.04,NNW,345,0.0,0.0,91,0.00,,---,0.00,VWS V14.01,2013-08-06 06:02:00,
2013-08-06 02:03:00,51.4,48.9,30.05,NNW,347,0.0,0.0,91,0.00,,---,0.00,VWS V14.01,2013-08-06 06:03:00,
2013-08-06 02:06:00,51.6,49.1,30.05,North,349,0.0,0.0,91,0.00,,---,0.00,VWS V14.01,2013-08-06 06:06:00,
2013-08-06 02:07:00,51.6,48.8,30.05,North,349,0.0,0.0,90,0.00,,---,0.00,VWS V14.01,2013-08-06 06:07:00,
2013-08-06 02:08:00,51.6,48.8,30.05,North,349,0.0,0.0,90,0.00,,---,0.00,VWS V14.01,2013-08-06 06:08:00,
2013-08-06 02:09:00,51.5,48.4,30.05,North,350,0.0,0.0,89,0.00,,---,0.00,VWS V14.01,2013-08-06 06:09:00,
2013-08-06 02:11:00,51.3,48.2,30.05,NNW,345,0.0,0.0,89,0.00,,---,0.00,VWS V14.01,2013-08-06 06:11:00,
2013-08-06 02:13:00,51.0,47.9,30.05,NNW,343,0.0,0.0,89,0.00,,---,0.00,VWS V14.01,2013-08-06 06:13:00,
2013-08-06 02:14:00,51.0,47.9,30.05,NNW,343,0.0,0.0,89,0.00,,---,0.00,VWS V14.01,2013-08-06 06:14:00,
2013-08-06 02:16:00,50.8,48.0,30.05,NNW,347,0.0,0.0,90,0.00,,---,0.00,VWS V14.01,2013-08-06 06:16:00,
2013-08-06 02:17:00,50.8,48.0,30.05,North,349,0.0,0.0,90,0.00,,---,0.00,VWS V14.01,2013-08-06 06:17:00,
2013-08-06 02:19:00,50.8,48.3,30.05,North,349,0.0,0.0,91,0.00,,---,0.00,VWS V14.01,2013-08-06 06:19:00,
2013-08-06 02:20:00,50.8,48.3,30.05,NNW,348,0.0,0.0,91,0.00,,---,0.00,VWS V14.01,2013-08-06 06:20:00,
2013-08-06 02:22:00,50.8,48.3,30.05,North,349,0.0,0.0,91,0.00,,---,0.00,VWS V14.01,2013-08-06 06:22:00,
2013-08-06 02:24:00,50.8,48.3,30.05,North,349,0.0,0.0,91,0.00,,---,0.00,VWS V14.01,2013-08-06 06:24:00,
2013-08-06 02:25:00,50.8,48.3,30.05,North,349,0.0,0.0,91,0.00,,---,0.00,VWS V14.01,2013-08-06 06:25:00,
2013-08-06 02:26:00,50.8,48.3,30.05,North,349,0.0,0.0,91,0.00,,---,0.00,VWS V14.01,2013-08-06 06:26:00,
2013-08-06 02:27:00,50.7,48.2,30.05,North,349,0.0,0.0,91,0.00,,---,0.00,VWS V14.01,2013-08-06 06:27:00,
2013-08-06 02:29:00,50.6,48.1,30.05,NNW,348,0.0,0.0,91,0.00,,---,0.00,VWS V14.01,2013-08-06 06:29:00,
2013-08-06 02:30:00,50.6,48.1,30.05,North,349,0.0,0.0,91,0.00,,---,0.00,VWS V14.01,2013-08-06 06:30:00,
2013-08-06 02:31:00,50.6,48.1,30.05,NNW,345,0.0,0.0,91,0.00,,---,0.00,VWS V14.01,2013-08-06 06:31:00,
2013-08-06 02:33:00,50.5,48.0,30.05,North,349,0.0,0.0,91,0.00,,---,0.00,VWS V14.01,2013-08-06 06:33:00,
2013-08-06 02:34:00,50.5,48.0,30.05,NNW,348,0.0,0.0,91,0.00,,---,0.00,VWS V14.01,2013-08-06 06:34:00,
2013-08-06 02:36:00,50.5,48.3,30.05,North,349,0.0,0.0,92,0.00,,---,0.00,VWS V14.01,2013-08-06 06:36:00,
2013-08-06 02:37:00,50.5,48.3,30.05,North,349,0.0,0.0,92,0.00,,---,0.00,VWS V14.01,2013-08-06 06:37:00,
2013-08-06 02:39:00,50.5,48.3,30.05,North,353,0.0,0.0,92,0.00,,---,0.00,VWS V14.01,2013-08-06 06:39:00,
2013-08-06 02:40:00,50.5,48.3,30.05,North,352,0.0,0.0,92,0.00,,---,0.00,VWS V14.01,2013-08-06 06:40:00,
2013-08-06 02:41:00,50.5,48.3,30.05,North,349,0.0,0.0,92,0.00,,---,0.00,VWS V14.01,2013-08-06 06:41:00,
2013-08-06 02:42:00,50.5,48.3,30.05,North,352,0.0,0.0,92,0.00,,---,0.00,VWS V14.01,2013-08-06 06:42:00,
2013-08-06 02:43:00,50.5,48.3,30.05,North,352,0.0,0.0,92,0.00,,---,0.00,VWS V14.01,2013-08-06 06:43:00,
2013-08-06 02:44:00,50.5,48.3,30.05,North,353,0.0,0.0,92,0.00,,---,0.00,VWS V14.01,2013-08-06 06:44:00,
2013-08-06 02:46:00,50.5,48.3,30.05,North,352,0.0,0.0,92,0.00,,---,0.00,VWS V14.01,2013-08-06 06:46:00,
2013-08-06 02:47:00,50.5,48.3,30.05,North,352,0.0,0.0,92,0.00,,---,0.00,VWS V14.01,2013-08-06 06:47:00,
2013-08-06 02:48:00,50.5,48.3,30.05,North,352,0.0,0.0,92,0.00,,---,0.00,VWS V14.01,2013-08-06 06:48:00,
2013-08-06 02:50:00,50.6,48.4,30.05,North,352,0.0,0.0,92,0.00,,---,0.00,VWS V14.01,2013-08-06 06:50:00,
2013-08-06 02:53:00,50.7,48.5,30.05,North,352,0.0,0.0,92,0.00,,---,0.00,VWS V14.01,2013-08-06 06:53:00,
2013-08-06 02:54:00,50.6,48.4,30.05,North,352,0.0,0.0,92,0.00,,---,0.00,VWS V14.01,2013-08-06 06:54:00,
2013-08-06 02:55:00,50.6,48.4,30.05,North,352,0.0,0.0,92,0.00,,---,0.00,VWS V14.01,2013-08-06 06:55:00,
2013-08-06 02:59:00,50.4,48.2,30.05,North,350,0.0,0.0,92,0.00,,---,0.00,VWS V14.01,2013-08-06 06:59:00,
2013-08-06 03:00:00,50.4,48.2,30.05,North,350,0.0,0.0,92,0.00,,---,0.00,VWS V14.01,2013-08-06 07:00:00,
2013-08-06 03:01:00,50.4,48.2,30.05,NNW,348,0.0,0.0,92,0.00,,---,0.00,VWS V14.01,2013-08-06 07:01:00,
2013-08-06 03:04:00,50.4,48.5,30.05,North,353,0.0,0.0,93,0.00,,---,0.00,VWS V14.01,2013-08-06 07:04:00,
2013-08-06 03:05:00,50.5,48.6,30.05,North,353,0.0,0.0,93,0.00,,---,0.00,VWS V14.01,2013-08-06 07:05:00,
2013-08-06 03:06:00,50.5,48.6,30.05,North,352,0.0,0.0,93,0.00,,---,0.00,VWS V14.01,2013-08-06 07:06:00,
2013-08-06 03:07:00,50.6,48.7,30.05,North,352,0.0,0.0,93,0.00,,---,0.00,VWS V14.01,2013-08-06 07:07:00,
2013-08-06 03:09:00,50.7,48.8,30.05,North,352,0.0,0.0,93,0.00,,---,0.00,VWS V14.01,2013-08-06 07:09:00,
2013-08-06 03:10:00,50.8,48.8,30.05,North,351,0.0,0.0,93,0.00,,---,0.00,VWS V14.01,2013-08-06 07:10:00,
2013-08-06 03:11:00,50.8,48.8,30.05,North,352,0.0,0.0,93,0.00,,---,0.00,VWS V14.01,2013-08-06 07:11:00,
2013-08-06 03:13:00,50.7,48.5,30.05,North,353,0.0,0.0,92,0.00,,---,0.00,VWS V14.01,2013-08-06 07:13:00,
2013-08-06 03:15:00,50.6,48.4,30.05,North,354,0.0,0.0,92,0.00,,---,0.00,VWS V14.01,2013-08-06 07:15:00,
2013-08-06 03:16:00,50.4,48.2,30.05,North,354,0.0,0.0,92,0.00,,---,0.00,VWS V14.01,2013-08-06 07:16:00,
2013-08-06 03:18:00,50.2,48.0,30.05,North,350,0.0,0.0,92,0.00,,---,0.00,VWS V14.01,2013-08-06 07:18:00,
2013-08-06 03:19:00,50.1,47.9,30.05,North,350,0.0,0.0,92,0.00,,---,0.00,VWS V14.01,2013-08-06 07:19:00,
2013-08-06 03:21:00,50.0,47.8,30.05,North,349,0.0,0.0,92,0.00,,---,0.00,VWS V14.01,2013-08-06 07:21:00,
2013-08-06 03:22:00,50.0,47.8,30.05,North,349,0.0,0.0,92,0.00,,---,0.00,VWS V14.01,2013-08-06 07:22:00,
2013-08-06 03:24:00,50.0,48.1,30.05,North,350,0.0,0.0,93,0.00,,---,0.00,VWS V14.01,2013-08-06 07:24:00,
2013-08-06 03:26:00,49.9,48.0,30.06,North,350,0.0,0.0,93,0.00,,---,0.00,VWS V14.01,2013-08-06 07:26:00,
2013-08-06 03:27:00,49.9,48.0,30.06,North,349,0.0,0.0,93,0.00,,---,0.00,VWS V14.01,2013-08-06 07:27:00,
2013-08-06 03:28:00,49.9,48.0,30.05,North,350,0.0,0.0,93,0.00,,---,0.00,VWS V14.01,2013-08-06 07:28:00,
2013-08-06 03:30:00,49.9,48.0,30.05,North,350,0.0,0.0,93,0.00,,---,0.00,VWS V14.01,2013-08-06 07:30:00,
2013-08-06 03:33:00,49.9,48.0,30.05,North,352,0.0,0.0,93,0.00,,---,0.00,VWS V14.01,2013-08-06 07:33:00,
2013-08-06 03:34:00,49.9,48.0,30.05,North,351,0.0,0.0,93,0.00,,---,0.00,VWS V14.01,2013-08-06 07:34:00,
2013-08-06 03:35:00,49.9,48.2,30.05,North,352,0.0,0.0,94,0.00,,---,0.00,VWS V14.01,2013-08-06 07:35:00,
2013-08-06 03:37:00,50.0,48.3,30.05,North,351,0.0,0.0,94,0.00,,---,0.00,VWS V14.01,2013-08-06 07:37:00,
2013-08-06 03:38:00,50.0,48.3,30.05,North,352,0.0,0.0,94,0.00,,---,0.00,VWS V14.01,2013-08-06 07:38:00,
2013-08-06 03:39:00,50.1,48.4,30.05,North,351,0.0,0.0,94,0.00,,---,0.00,VWS V14.01,2013-08-06 07:39:00,
2013-08-06 03:40:00,50.1,48.4,30.06,North,352,0.0,0.0,94,0.00,,---,0.00,VWS V14.01,2013-08-06 07:40:00,
2013-08-06 03:41:00,50.1,48.4,30.06,North,352,0.0,0.0,94,0.00,,---,0.00,VWS V14.01,2013-08-06 07:41:00,
2013-08-06 03:42:00,50.2,48.5,30.05,NNW,348,0.0,0.0,94,0.00,,---,0.00,VWS V14.01,2013-08-06 07:42:00,
2013-08-06 03:45:00,50.3,48.6,30.06,NNW,348,0.0,0.0,94,0.00,,---,0.00,VWS V14.01,2013-08-06 07:45:00,
2013-08-06 03:46:00,50.4,48.7,30.06,North,349,0.0,0.0,94,0.00,,---,0.00,VWS V14.01,2013-08-06 07:46:00,
2013-08-06 03:47:00,50.5,49.1,30.06,North,349,0.0,0.0,95,0.00,,---,0.00,VWS V14.01,2013-08-06 07:47:00,
2013-08-06 03:51:00,51.0,49.6,30.06,North,352,0.0,0.0,95,0.00,,---,0.00,VWS V14.01,2013-08-06 07:51:00,
2013-08-06 03:52:00,51.1,49.7,30.06,North,351,0.0,0.0,95,0.00,,---,0.00,VWS V14.01,2013-08-06 07:52:00,
2013-08-06 03:54:00,51.0,49.3,30.06,North,1,0.0,0.0,94,0.00,,---,0.00,VWS V14.01,2013-08-06 07:54:00,
2013-08-06 03:56:00,50.8,48.8,30.06,North,349,0.0,0.0,93,0.00,,---,0.00,VWS V14.01,2013-08-06 07:56:00,
2013-08-06 03:57:00,50.7,48.8,30.06,NNW,347,0.0,0.0,93,0.00,,---,0.00,VWS V14.01,2013-08-06 07:57:00,
2013-08-06 03:58:00,50.6,48.7,30.06,North,352,0.0,0.0,93,0.00,,---,0.00,VWS V14.01,2013-08-06 07:58:00,
2013-08-06 04:00:00,50.5,48.6,30.06,North,350,0.0,0.0,93,0.00,,---,0.00,VWS V14.01,2013-08-06 08:00:00,
2013-08-06 04:01:00,50.4,48.5,30.06,North,349,0.0,0.0,93,0.00,,---,0.00,VWS V14.01,2013-08-06 08:01:00,
2013-08-06 04:03:00,50.3,48.4,30.06,North,350,0.0,0.0,93,0.00,,---,0.00,VWS V14.01,2013-08-06 08:03:00,
2013-08-06 04:05:00,50.3,48.4,30.06,North,350,0.0,0.0,93,0.00,,---,0.00,VWS V14.01,2013-08-06 08:05:00,
2013-08-06 04:07:00,50.2,48.5,30.06,North,352,0.0,0.0,94,0.00,,---,0.00,VWS V14.01,2013-08-06 08:07:00,
2013-08-06 04:08:00,50.2,48.5,30.06,North,352,0.0,0.0,94,0.00,,---,0.00,VWS V14.01,2013-08-06 08:08:00,
2013-08-06 04:09:00,50.2,48.5,30.06,North,351,0.0,0.0,94,0.00,,---,0.00,VWS V14.01,2013-08-06 08:09:00,
2013-08-06 04:11:00,50.2,48.5,30.06,North,354,0.0,0.0,94,0.00,,---,0.00,VWS V14.01,2013-08-06 08:11:00,
2013-08-06 04:13:00,50.2,48.5,30.06,North,354,0.0,0.0,94,0.00,,---,0.00,VWS V14.01,2013-08-06 08:13:00,
2013-08-06 04:14:00,50.3,48.6,30.06,North,353,0.0,0.0,94,0.00,,---,0.00,VWS V14.01,2013-08-06 08:14:00,
2013-08-06 04:17:00,50.5,49.1,30.06,North,352,0.0,0.0,95,0.00,,---,0.00,VWS V14.01,2013-08-06 08:17:00,
2013-08-06 04:18:00,50.5,49.1,30.06,North,350,0.0,0.0,95,0.00,,---,0.00,VWS V14.01,2013-08-06 08:18:00,
2013-08-06 04:19:00,50.5,49.1,30.06,North,349,0.0,0.0,95,0.00,,---,0.00,VWS V14.01,2013-08-06 08:19:00,
2013-08-06 04:20:00,50.6,49.2,30.06,NNW,348,0.0,0.0,95,0.00,,---,0.00,VWS V14.01,2013-08-06 08:20:00,
2013-08-06 04:23:00,50.5,48.8,30.06,North,349,0.0,0.0,94,0.00,,---,0.00,VWS V14.01,2013-08-06 08:23:00,
2013-08-06 04:24:00,50.5,48.8,30.06,NNW,345,0.0,0.0,94,0.00,,---,0.00,VWS V14.01,2013-08-06 08:24:00,
2013-08-06 04:25:00,50.5,48.8,30.06,NNW,348,0.0,0.0,94,0.00,,---,0.00,VWS V14.01,2013-08-06 08:25:00,
2013-08-06 04:26:00,50.5,48.8,30.06,North,352,0.0,0.0,94,0.00,,---,0.00,VWS V14.01,2013-08-06 08:26:00,
2013-08-06 04:29:00,50.6,49.2,30.06,NNW,348,0.0,0.0,95,0.00,,---,0.00,VWS V14.01,2013-08-06 08:29:00,
2013-08-06 04:31:00,50.7,49.3,30.06,North,349,0.0,0.0,95,0.00,,---,0.00,VWS V14.01,2013-08-06 08:31:00,
2013-08-06 04:32:00,50.8,49.4,30.07,NNW,348,0.0,0.0,95,0.00,,---,0.00,VWS V14.01,2013-08-06 08:32:00,
2013-08-06 04:33:00,50.9,49.5,30.07,NNW,348,0.0,0.0,95,0.00,,---,0.00,VWS V14.01,2013-08-06 08:33:00,
2013-08-06 04:35:00,50.9,49.5,30.07,NNW,348,0.0,0.0,95,0.00,,---,0.00,VWS V14.01,2013-08-06 08:35:00,
2013-08-06 04:36:00,50.9,49.5,30.07,NNW,348,0.0,0.0,95,0.00,,---,0.00,VWS V14.01,2013-08-06 08:36:00,
2013-08-06 04:38:00,50.9,49.5,30.07,NNW,348,0.0,0.0,95,0.00,,---,0.00,VWS V14.01,2013-08-06 08:38:00,
2013-08-06 04:39:00,50.9,49.5,30.07,NNW,348,0.0,0.0,95,0.00,,---,0.00,VWS V14.01,2013-08-06 08:39:00,
2013-08-06 04:41:00,50.8,49.4,30.07,North,349,0.0,0.0,95,0.00,,---,0.00,VWS V14.01,2013-08-06 08:41:00,
2013-08-06 04:42:00,50.7,49.0,30.07,NNW,348,0.0,0.0,94,0.00,,---,0.00,VWS V14.01,2013-08-06 08:42:00,
2013-08-06 04:43:00,50.7,49.3,30.07,NNW,347,0.0,0.0,95,0.00,,---,0.00,VWS V14.01,2013-08-06 08:43:00,
2013-08-06 04:44:00,50.7,49.3,30.07,NNW,348,0.0,0.0,95,0.00,,---,0.00,VWS V14.01,2013-08-06 08:44:00,
2013-08-06 04:46:00,50.8,49.4,30.07,North,352,0.0,0.0,95,0.00,,---,0.00,VWS V14.01,2013-08-06 08:46:00,
2013-08-06 04:47:00,50.8,49.4,30.07,North,354,0.0,0.0,95,0.00,,---,0.00,VWS V14.01,2013-08-06 08:47:00,
2013-08-06 04:48:00,50.9,49.5,30.07,North,356,0.0,0.0,95,0.00,,---,0.00,VWS V14.01,2013-08-06 08:48:00,
2013-08-06 04:50:00,51.0,49.6,30.07,North,354,0.0,0.0,95,0.00,,---,0.00,VWS V14.01,2013-08-06 08:50:00,
2013-08-06 04:51:00,51.0,49.6,30.07,North,353,0.0,0.0,95,0.00,,---,0.00,VWS V14.01,2013-08-06 08:51:00,
2013-08-06 04:52:00,51.1,49.7,30.07,North,353,0.0,0.0,95,0.00,,---,0.00,VWS V14.01,2013-08-06 08:52:00,
2013-08-06 04:53:00,51.1,49.7,30.07,North,353,0.0,0.0,95,0.00,,---,0.00,VWS V14.01,2013-08-06 08:53:00,
2013-08-06 04:55:00,51.2,49.8,30.07,North,353,0.0,0.0,95,0.00,,---,0.00,VWS V14.01,2013-08-06 08:55:00,
2013-08-06 04:57:00,51.2,49.8,30.07,NNW,348,0.0,0.0,95,0.00,,---,0.00,VWS V14.01,2013-08-06 08:57:00,
2013-08-06 04:58:00,51.2,49.8,30.07,NNW,347,0.0,0.0,95,0.00,,---,0.00,VWS V14.01,2013-08-06 08:58:00,
2013-08-06 05:00:00,51.1,49.7,30.07,NNW,345,0.0,0.0,95,0.00,,---,0.00,VWS V14.01,2013-08-06 09:00:00,
2013-08-06 05:01:00,51.1,49.7,30.07,NNW,345,0.0,0.0,95,0.00,,---,0.00,VWS V14.01,2013-08-06 09:01:00,
2013-08-06 05:03:00,51.1,49.7,30.07,NNW,345,0.0,0.0,95,0.00,,---,0.00,VWS V14.01,2013-08-06 09:03:00,
2013-08-06 05:05:00,51.2,49.8,30.08,North,349,0.0,0.0,95,0.00,,---,0.00,VWS V14.01,2013-08-06 09:05:00,
2013-08-06 05:08:00,51.3,49.9,30.07,NNW,348,0.0,0.0,95,0.00,,---,0.00,VWS V14.01,2013-08-06 09:08:00,
2013-08-06 05:10:00,51.4,50.3,30.08,North,349,0.0,0.0,96,0.00,,---,0.00,VWS V14.01,2013-08-06 09:10:00,
2013-08-06 05:11:00,51.5,50.4,30.07,North,352,0.0,0.0,96,0.00,,---,0.00,VWS V14.01,2013-08-06 09:11:00,
2013-08-06 05:14:00,51.4,50.0,30.08,North,352,0.0,0.0,95,0.00,,---,0.00,VWS V14.01,2013-08-06 09:14:00,
2013-08-06 05:15:00,51.3,49.9,30.08,NNW,347,0.0,0.0,95,0.00,,---,0.00,VWS V14.01,2013-08-06 09:15:00,
2013-08-06 05:16:00,51.3,49.9,30.08,NNW,347,0.0,0.0,95,0.00,,---,0.00,VWS V14.01,2013-08-06 09:16:00,
2013-08-06 05:17:00,51.3,49.9,30.08,NNW,348,0.0,0.0,95,0.00,,---,0.00,VWS V14.01,2013-08-06 09:17:00,
2013-08-06 05:19:00,51.2,49.8,30.08,North,352,0.0,0.0,95,0.00,,---,0.00,VWS V14.01,2013-08-06 09:19:00,
2013-08-06 05:20:00,51.2,49.8,30.08,North,353,0.0,0.0,95,0.00,,---,0.00,VWS V14.01,2013-08-06 09:20:00,
2013-08-06 05:21:00,51.2,49.8,30.08,North,354,0.0,0.0,95,0.00,,---,0.00,VWS V14.01,2013-08-06 09:21:00,
2013-08-06 05:22:00,51.2,49.8,30.08,North,352,0.0,0.0,95,0.00,,---,0.00,VWS V14.01,2013-08-06 09:22:00,
2013-08-06 05:24:00,51.1,49.7,30.08,North,349,0.0,0.0,95,0.00,,---,0.00,VWS V14.01,2013-08-06 09:24:00,
2013-08-06 05:26:00,51.1,49.7,30.08,North,349,0.0,0.0,95,0.00,,---,0.00,VWS V14.01,2013-08-06 09:26:00,
2013-08-06 05:27:00,51.0,49.6,30.08,North,350,0.0,0.0,95,0.00,,---,0.00,VWS V14.01,2013-08-06 09:27:00,
2013-08-06 05:28:00,51.0,49.6,30.08,North,350,0.0,0.0,95,0.00,,---,0.00,VWS V14.01,2013-08-06 09:28:00,
2013-08-06 05:30:00,51.0,49.6,30.08,North,350,0.0,0.0,95,0.00,,---,0.00,VWS V14.01,2013-08-06 09:30:00,
2013-08-06 05:31:00,51.0,49.6,30.08,North,349,0.0,0.0,95,0.00,,---,0.00,VWS V14.01,2013-08-06 09:31:00,
2013-08-06 05:32:00,50.9,49.5,30.08,North,349,0.0,0.0,95,0.00,,---,0.00,VWS V14.01,2013-08-06 09:32:00,
2013-08-06 05:33:00,50.9,49.5,30.08,North,349,0.0,0.0,95,0.00,,---,0.00,VWS V14.01,2013-08-06 09:33:00,
2013-08-06 05:35:00,50.9,49.5,30.08,North,349,0.0,0.0,95,0.00,,---,0.00,VWS V14.01,2013-08-06 09:35:00,
2013-08-06 05:37:00,51.0,49.6,30.08,North,349,0.0,0.0,95,0.00,,---,0.00,VWS V14.01,2013-08-06 09:37:00,
2013-08-06 05:38:00,51.1,49.7,30.08,North,352,0.0,0.0,95,0.00,,---,0.00,VWS V14.01,2013-08-06 09:38:00,
2013-08-06 05:41:00,51.3,50.2,30.08,North,352,0.0,0.0,96,0.00,,---,0.00,VWS V14.01,2013-08-06 09:41:00,
2013-08-06 05:42:00,51.4,50.3,30.08,North,352,0.0,0.0,96,0.00,,---,0.00,VWS V14.01,2013-08-06 09:42:00,
2013-08-06 05:43:00,51.4,50.3,30.08,North,352,0.0,0.0,96,0.00,,---,0.00,VWS V14.01,2013-08-06 09:43:00,
2013-08-06 05:44:00,51.4,50.3,30.08,North,352,0.0,0.0,96,0.00,,---,0.00,VWS V14.01,2013-08-06 09:44:00,
2013-08-06 05:47:00,51.4,50.0,30.08,NNW,347,0.0,0.0,95,0.00,,---,0.00,VWS V14.01,2013-08-06 09:47:00,
2013-08-06 05:48:00,51.4,50.0,30.08,NNW,347,0.0,0.0,95,0.00,,---,0.00,VWS V14.01,2013-08-06 09:48:00,
2013-08-06 05:49:00,51.3,49.9,30.08,NNW,347,0.0,0.0,95,0.00,,---,0.00,VWS V14.01,2013-08-06 09:49:00,
2013-08-06 05:51:00,51.3,49.9,30.08,NNW,345,0.0,0.0,95,0.00,,---,0.00,VWS V14.01,2013-08-06 09:51:00,
2013-08-06 05:52:00,51.4,50.0,30.08,NNW,345,0.0,0.0,95,0.00,,---,0.00,VWS V14.01,2013-08-06 09:52:00,
2013-08-06 05:54:00,51.5,50.4,30.08,NNW,347,0.0,0.0,96,0.00,,---,0.00,VWS V14.01,2013-08-06 09:54:00,
2013-08-06 05:55:00,51.5,50.4,30.08,NNW,347,0.0,0.0,96,0.00,,---,0.00,VWS V14.01,2013-08-06 09:55:00,
2013-08-06 05:57:00,51.6,50.5,30.08,North,349,0.0,0.0,96,0.00,,---,0.00,VWS V14.01,2013-08-06 09:57:00,
2013-08-06 05:58:00,51.6,50.5,30.08,NNW,348,0.0,0.0,96,0.00,,---,0.00,VWS V14.01,2013-08-06 09:58:00,
2013-08-06 06:00:00,51.8,50.7,30.08,NNW,348,0.0,0.0,96,0.00,,---,0.00,VWS V14.01,2013-08-06 10:00:00,
2013-08-06 06:02:00,51.8,50.7,30.09,NNW,348,0.0,0.0,96,0.00,,---,0.00,VWS V14.01,2013-08-06 10:02:00,
2013-08-06 06:03:00,51.8,50.7,30.09,NNW,348,0.0,0.0,96,0.00,,---,0.00,VWS V14.01,2013-08-06 10:03:00,
2013-08-06 06:05:00,51.7,50.3,30.09,NNW,348,0.0,0.0,95,0.00,,---,0.00,VWS V14.01,2013-08-06 10:05:00,
2013-08-06 06:06:00,51.6,50.2,30.09,NNW,348,0.0,0.0,95,0.00,,---,0.00,VWS V14.01,2013-08-06 10:06:00,
2013-08-06 06:09:00,51.5,50.1,30.09,North,349,0.0,0.0,95,0.00,,---,0.00,VWS V14.01,2013-08-06 10:09:00,
2013-08-06 06:10:00,51.5,50.1,30.09,North,350,0.0,0.0,95,0.00,,---,0.00,VWS V14.01,2013-08-06 10:10:00,
2013-08-06 06:11:00,51.5,50.1,30.09,NNW,348,0.0,0.0,95,0.00,,---,0.00,VWS V14.01,2013-08-06 10:11:00,
2013-08-06 06:15:00,51.5,50.1,30.09,North,350,0.0,0.0,95,0.00,,---,0.00,VWS V14.01,2013-08-06 10:15:00,
2013-08-06 06:16:00,51.6,50.2,30.09,North,350,0.0,0.0,95,0.00,,---,0.00,VWS V14.01,2013-08-06 10:16:00,
2013-08-06 06:17:00,51.6,50.2,30.09,NNW,348,0.0,0.0,95,0.00,,---,0.00,VWS V14.01,2013-08-06 10:17:00,
2013-08-06 06:18:00,51.6,50.2,30.09,North,349,0.0,0.0,95,0.00,,---,0.00,VWS V14.01,2013-08-06 10:18:00,
2013-08-06 06:21:00,51.6,50.2,30.09,North,349,0.0,0.0,95,0.00,,---,0.00,VWS V14.01,2013-08-06 10:21:00,
2013-08-06 06:22:00,51.6,50.2,30.09,North,349,0.0,0.0,95,0.00,,---,0.00,VWS V14.01,2013-08-06 10:22:00,
2013-08-06 06:23:00,51.6,50.2,30.09,North,349,0.0,0.0,95,0.00,,---,0.00,VWS V14.01,2013-08-06 10:23:00,
2013-08-06 06:24:00,51.7,50.3,30.09,North,350,0.0,0.0,95,0.00,,---,0.00,VWS V14.01,2013-08-06 10:24:00,
2013-08-06 06:26:00,51.7,50.3,30.09,North,349,0.0,0.0,95,0.00,,---,0.00,VWS V14.01,2013-08-06 10:26:00,
2013-08-06 06:27:00,51.8,50.4,30.09,North,349,0.0,0.0,95,0.00,,---,0.00,VWS V14.01,2013-08-06 10:27:00,
2013-08-06 06:30:00,51.9,50.5,30.09,North,350,0.0,0.0,95,0.00,,---,0.00,VWS V14.01,2013-08-06 10:30:00,
2013-08-06 06:31:00,52.0,50.9,30.09,North,349,0.0,0.0,96,0.00,,---,0.00,VWS V14.01,2013-08-06 10:31:00,
2013-08-06 06:33:00,52.1,51.0,30.09,North,349,0.0,0.0,96,0.00,,---,0.00,VWS V14.01,2013-08-06 10:33:00,
2013-08-06 06:35:00,52.3,51.2,30.09,North,349,0.0,0.0,96,0.00,,---,0.00,VWS V14.01,2013-08-06 10:35:00,
2013-08-06 06:36:00,52.4,51.3,30.09,North,350,0.0,0.0,96,0.00,,---,0.00,VWS V14.01,2013-08-06 10:36:00,
2013-08-06 06:38:00,52.6,51.5,30.09,North,350,0.0,0.0,96,0.00,,---,0.00,VWS V14.01,2013-08-06 10:38:00,
2013-08-06 06:39:00,52.7,51.6,30.09,North,349,0.0,0.0,96,0.00,,---,0.00,VWS V14.01,2013-08-06 10:39:00,
2013-08-06 06:40:00,52.8,51.7,30.09,North,350,0.0,0.0,96,0.00,,---,0.00,VWS V14.01,2013-08-06 10:40:00,
2013-08-06 06:41:00,52.8,51.7,30.09,North,350,0.0,0.0,96,0.00,,---,0.00,VWS V14.01,2013-08-06 10:41:00,
2013-08-06 06:42:00,53.0,51.9,30.10,North,349,0.0,0.0,96,0.00,,---,0.00,VWS V14.01,2013-08-06 10:42:00,
2013-08-06 06:43:00,53.0,51.9,30.10,North,350,0.0,0.0,96,0.00,,---,0.00,VWS V14.01,2013-08-06 10:43:00,
2013-08-06 06:44:00,53.1,52.0,30.10,North,349,0.0,0.0,96,0.00,,---,0.00,VWS V14.01,2013-08-06 10:44:00,
2013-08-06 06:46:00,53.1,52.0,30.10,North,350,0.0,0.0,96,0.00,,---,0.00,VWS V14.01,2013-08-06 10:46:00,
2013-08-06 06:47:00,53.2,52.1,30.10,North,349,0.0,0.0,96,0.00,,---,0.00,VWS V14.01,2013-08-06 10:47:00,
2013-08-06 06:48:00,53.3,52.2,30.10,North,350,0.0,0.0,96,0.00,,---,0.00,VWS V14.01,2013-08-06 10:48:00,
2013-08-06 06:50:00,53.3,51.9,30.10,North,350,0.0,0.0,95,0.00,,---,0.00,VWS V14.01,2013-08-06 10:50:00,
2013-08-06 06:51:00,53.4,52.0,30.10,North,349,0.0,0.0,95,0.00,,---,0.00,VWS V14.01,2013-08-06 10:51:00,
2013-08-06 06:52:00,53.4,52.0,30.10,North,349,0.0,0.0,95,0.00,,---,0.00,VWS V14.01,2013-08-06 10:52:00,
2013-08-06 06:55:00,53.5,52.1,30.10,North,350,0.0,0.0,95,0.00,,---,0.00,VWS V14.01,2013-08-06 10:55:00,
2013-08-06 06:57:00,53.6,52.2,30.10,North,349,0.0,0.0,95,0.00,,---,0.00,VWS V14.01,2013-08-06 10:57:00,
2013-08-06 07:00:00,53.9,52.5,30.10,North,349,0.0,0.0,95,0.00,,---,0.00,VWS V14.01,2013-08-06 11:00:00,
2013-08-06 07:01:00,53.9,52.5,30.10,North,350,0.0,0.0,95,0.00,,---,0.00,VWS V14.01,2013-08-06 11:01:00,
2013-08-06 07:02:00,54.1,52.7,30.10,North,349,0.0,0.0,95,0.00,,---,0.00,VWS V14.01,2013-08-06 11:02:00,
2013-08-06 07:03:00,54.2,52.8,30.10,North,350,0.0,0.0,95,0.00,,---,0.00,VWS V14.01,2013-08-06 11:03:00,
2013-08-06 07:05:00,54.4,53.0,30.10,North,349,0.0,0.0,95,0.00,,---,0.00,VWS V14.01,2013-08-06 11:05:00,
2013-08-06 07:07:00,54.6,52.9,30.10,North,350,0.0,0.0,94,0.00,,---,0.00,VWS V14.01,2013-08-06 11:07:00,
2013-08-06 07:08:00,54.7,53.0,30.10,North,349,0.0,0.0,94,0.00,,---,0.00,VWS V14.01,2013-08-06 11:08:00,
2013-08-06 07:09:00,54.7,53.0,30.10,North,350,0.0,0.0,94,0.00,,---,0.00,VWS V14.01,2013-08-06 11:09:00,
2013-08-06 07:10:00,54.8,53.1,30.10,North,349,0.0,0.0,94,0.00,,---,0.00,VWS V14.01,2013-08-06 11:10:00,
2013-08-06 07:13:00,55.1,53.4,30.10,North,349,0.0,0.0,94,0.00,,---,0.00,VWS V14.01,2013-08-06 11:13:00,
2013-08-06 07:14:00,55.1,53.4,30.10,North,349,0.0,0.0,94,0.00,,---,0.00,VWS V14.01,2013-08-06 11:14:00,
2013-08-06 07:16:00,55.5,53.8,30.11,North,354,0.0,0.0,94,0.00,,---,0.00,VWS V14.01,2013-08-06 11:16:00,
2013-08-06 07:19:00,55.8,53.8,30.11,North,354,0.0,0.0,93,0.00,,---,0.00,VWS V14.01,2013-08-06 11:19:00,
2013-08-06 07:20:00,55.9,53.9,30.11,North,354,0.0,0.0,93,0.00,,---,0.00,VWS V14.01,2013-08-06 11:20:00,
2013-08-06 07:22:00,56.1,53.8,30.11,North,354,0.0,0.0,92,0.00,,---,0.00,VWS V14.01,2013-08-06 11:22:00,
2013-08-06 07:24:00,56.3,54.0,30.11,North,354,0.0,0.0,92,0.00,,---,0.00,VWS V14.01,2013-08-06 11:24:00,
2013-08-06 07:25:00,56.5,53.9,30.11,North,354,0.0,0.0,91,0.00,,---,0.00,VWS V14.01,2013-08-06 11:25:00,
2013-08-06 07:26:00,56.5,53.9,30.11,North,355,0.0,0.0,91,0.00,,---,0.00,VWS V14.01,2013-08-06 11:26:00,
2013-08-06 07:28:00,56.8,54.2,30.11,North,359,0.0,0.0,91,0.00,,---,0.00,VWS V14.01,2013-08-06 11:28:00,
2013-08-06 07:29:00,57.0,54.1,30.11,North,1,0.0,0.0,90,0.00,,---,0.00,VWS V14.01,2013-08-06 11:29:00,
2013-08-06 07:31:00,57.2,54.0,30.11,North,1,0.0,0.0,89,0.00,,---,0.00,VWS V14.01,2013-08-06 11:31:00,
2013-08-06 07:32:00,57.4,54.2,30.11,North,1,0.0,0.0,89,0.00,,---,0.00,VWS V14.01,2013-08-06 11:32:00,
2013-08-06 07:33:00,57.6,54.4,30.11,North,4,0.0,0.0,89,0.00,,---,0.00,VWS V14.01,2013-08-06 11:33:00,
2013-08-06 07:35:00,57.9,54.4,30.11,North,1,0.0,0.0,88,0.00,,---,0.00,VWS V14.01,2013-08-06 11:35:00,
2013-08-06 07:36:00,57.9,54.4,30.11,North,360,0.0,0.0,88,0.00,,---,0.00,VWS V14.01,2013-08-06 11:36:00,
2013-08-06 07:37:00,58.0,54.5,30.11,North,360,0.0,0.0,88,0.00,,---,0.00,VWS V14.01,2013-08-06 11:37:00,
2013-08-06 07:39:00,58.1,54.6,30.11,North,353,0.0,0.0,88,0.00,,---,0.00,VWS V14.01,2013-08-06 11:39:00,
2013-08-06 07:42:00,58.4,54.5,30.11,North,350,0.0,0.0,87,0.00,,---,0.00,VWS V14.01,2013-08-06 11:42:00,
2013-08-06 07:43:00,58.6,53.5,30.11,NW,323,0.0,0.0,83,0.00,,---,0.00,VWS V14.01,2013-08-06 11:43:00,
2013-08-06 07:45:00,58.8,53.0,30.11,NW,320,0.0,0.0,81,0.00,,---,0.00,VWS V14.01,2013-08-06 11:45:00,
2013-08-06 07:47:00,59.1,52.9,30.11,NNW,347,0.0,0.0,80,0.00,,---,0.00,VWS V14.01,2013-08-06 11:47:00,
2013-08-06 07:48:00,59.2,53.0,30.11,West,270,0.0,0.0,80,0.00,,---,0.00,VWS V14.01,2013-08-06 11:48:00,
2013-08-06 07:49:00,59.3,53.5,30.11,West,273,0.0,0.0,81,0.00,,---,0.00,VWS V14.01,2013-08-06 11:49:00,
2013-08-06 07:53:00,59.7,53.9,30.12,North,349,0.0,0.0,81,0.00,,---,0.00,VWS V14.01,2013-08-06 11:53:00,
2013-08-06 07:54:00,59.7,53.9,30.12,NW,319,0.0,0.0,81,0.00,,---,0.00,VWS V14.01,2013-08-06 11:54:00,
2013-08-06 07:58:00,59.9,54.1,30.12,WNW,285,0.0,0.0,81,0.00,,---,0.00,VWS V14.01,2013-08-06 11:58:00,
2013-08-06 08:00:00,60.0,54.2,30.12,West,280,0.0,0.0,81,0.00,,---,0.00,VWS V14.01,2013-08-06 12:00:00,
2013-08-06 08:04:00,60.2,54.4,30.12,NNW,338,0.0,0.0,81,0.00,,---,0.00,VWS V14.01,2013-08-06 12:04:00,
2013-08-06 08:05:00,60.3,54.5,30.12,NNW,340,0.0,0.0,81,0.00,,---,0.00,VWS V14.01,2013-08-06 12:05:00,
2013-08-06 08:06:00,60.4,54.2,30.12,NNW,347,0.0,0.0,80,0.00,,---,0.00,VWS V14.01,2013-08-06 12:06:00,
2013-08-06 08:07:00,60.5,54.3,30.12,WNW,283,0.0,0.0,80,0.00,,---,0.00,VWS V14.01,2013-08-06 12:07:00,
2013-08-06 08:10:00,60.7,54.2,30.12,West,270,0.0,0.0,79,0.00,,---,0.00,VWS V14.01,2013-08-06 12:10:00,
2013-08-06 08:11:00,60.7,54.2,30.12,West,263,0.0,0.0,79,0.00,,---,0.00,VWS V14.01,2013-08-06 12:11:00,
2013-08-06 08:12:00,60.7,54.2,30.12,West,276,0.0,0.0,79,0.00,,---,0.00,VWS V14.01,2013-08-06 12:12:00,
2013-08-06 08:15:00,60.9,54.7,30.12,NNW,328,0.0,0.0,80,0.00,,---,0.00,VWS V14.01,2013-08-06 12:15:00,
2013-08-06 08:16:00,60.9,54.3,30.12,NW,308,0.0,0.0,79,0.00,,---,0.00,VWS V14.01,2013-08-06 12:16:00,
2013-08-06 08:18:00,60.9,54.3,30.12,West,273,0.0,0.0,79,0.00,,---,0.00,VWS V14.01,2013-08-06 12:18:00,
2013-08-06 08:19:00,61.0,54.1,30.12,WSW,243,0.0,0.0,78,0.00,,---,0.00,VWS V14.01,2013-08-06 12:19:00,
2013-08-06 08:20:00,60.9,54.3,30.12,West,267,0.0,0.0,79,0.00,,---,0.00,VWS V14.01,2013-08-06 12:20:00,
2013-08-06 08:22:00,61.0,54.5,30.12,West,267,0.0,0.0,79,0.00,,---,0.00,VWS V14.01,2013-08-06 12:22:00,
2013-08-06 08:24:00,61.1,54.5,30.12,West,269,0.0,0.0,79,0.00,,---,0.00,VWS V14.01,2013-08-06 12:24:00,
2013-08-06 08:26:00,61.3,54.7,30.12,West,270,0.0,0.0,79,0.00,,---,0.00,VWS V14.01,2013-08-06 12:26:00,
2013-08-06 08:27:00,61.4,54.8,30.12,NW,305,0.0,0.0,79,0.00,,---,0.00,VWS V14.01,2013-08-06 12:27:00,
2013-08-06 08:28:00,61.4,54.5,30.12,NNW,340,0.0,0.0,78,0.00,,---,0.00,VWS V14.01,2013-08-06 12:28:00,
2013-08-06 08:29:00,61.5,53.9,30.12,NW,316,0.0,0.0,76,0.00,,---,0.00,VWS V14.01,2013-08-06 12:29:00,
2013-08-06 08:30:00,61.5,53.9,30.12,WNW,293,0.0,0.0,76,0.00,,---,0.00,VWS V14.01,2013-08-06 12:30:00,
2013-08-06 08:31:00,61.5,53.9,30.12,NNW,343,0.0,0.0,76,0.00,,---,0.00,VWS V14.01,2013-08-06 12:31:00,
2013-08-06 08:32:00,61.6,54.0,30.12,NNW,341,0.0,0.0,76,0.00,,---,0.00,VWS V14.01,2013-08-06 12:32:00,
2013-08-06 08:34:00,61.7,54.1,30.12,North,359,0.0,0.0,76,0.00,,---,0.00,VWS V14.01,2013-08-06 12:34:00,
2013-08-06 08:35:00,61.7,54.1,30.12,North,350,0.0,0.0,76,0.00,,---,0.00,VWS V14.01,2013-08-06 12:35:00,
2013-08-06 08:37:00,61.9,54.3,30.12,NW,304,0.0,0.0,76,0.00,,---,0.00,VWS V14.01,2013-08-06 12:37:00,
2013-08-06 08:38:00,61.9,54.3,30.12,NNW,336,0.0,0.0,76,0.00,,---,0.00,VWS V14.01,2013-08-06 12:38:00,
2013-08-06 08:40:00,62.2,54.2,30.12,NNW,336,0.0,0.0,75,0.00,,---,0.00,VWS V14.01,2013-08-06 12:40:00,
2013-08-06 08:41:00,62.2,54.2,30.12,NNW,336,0.0,0.0,75,0.00,,---,0.00,VWS V14.01,2013-08-06 12:41:00,
2013-08-06 08:44:00,62.8,54.4,30.12,NNW,336,0.0,0.0,74,0.00,,---,0.00,VWS V14.01,2013-08-06 12:44:00,
2013-08-06 08:45:00,63.2,54.4,30.12,NW,305,0.0,0.0,73,0.00,,---,0.00,VWS V14.01,2013-08-06 12:45:00,
2013-08-06 08:46:00,63.2,54.4,30.12,WNW,298,0.0,0.0,73,0.00,,---,0.00,VWS V14.01,2013-08-06 12:46:00,
2013-08-06 08:47:00,63.2,53.7,30.12,WNW,295,0.0,0.0,71,0.00,,---,0.00,VWS V14.01,2013-08-06 12:47:00,
2013-08-06 08:49:00,63.4,54.2,30.12,WNW,295,0.0,0.0,72,0.00,,---,0.00,VWS V14.01,2013-08-06 12:49:00,
2013-08-06 08:51:00,63.6,54.8,30.12,WNW,283,0.0,0.0,73,0.00,,---,0.00,VWS V14.01,2013-08-06 12:51:00,
2013-08-06 08:52:00,63.7,54.1,30.12,West,280,0.0,0.0,71,0.00,,---,0.00,VWS V14.01,2013-08-06 12:52:00,
2013-08-06 08:54:00,64.2,55.4,30.12,SSW,208,0.0,0.0,73,0.00,,---,0.00,VWS V14.01,2013-08-06 12:54:00,
2013-08-06 08:55:00,64.4,55.6,30.12,WSW,252,0.0,0.0,73,0.00,,---,0.00,VWS V14.01,2013-08-06 12:55:00,
2013-08-06 08:56:00,64.6,55.0,30.12,SW,229,0.0,0.0,71,0.00,,---,0.00,VWS V14.01,2013-08-06 12:56:00,
2013-08-06 08:58:00,64.8,55.6,30.12,SE,129,0.0,0.0,72,0.00,,---,0.00,VWS V14.01,2013-08-06 12:58:00,
2013-08-06 08:59:00,65.1,55.5,30.12,SSE,147,0.0,0.0,71,0.00,,---,0.00,VWS V14.01,2013-08-06 12:59:00,
2013-08-06 09:00:00,65.4,55.0,30.13,SE,125,0.0,0.0,69,0.00,,---,0.00,VWS V14.01,2013-08-06 13:00:00,
2013-08-06 09:03:00,65.7,54.9,30.13,East,83,0.0,0.0,68,0.00,,---,0.00,VWS V14.01,2013-08-06 13:03:00,
2013-08-06 09:05:00,66.1,55.7,30.13,SW,232,0.0,0.0,69,0.00,,---,0.00,VWS V14.01,2013-08-06 13:05:00,
2013-08-06 09:07:00,66.7,55.8,30.13,SSE,166,0.0,0.0,68,0.00,,---,0.00,VWS V14.01,2013-08-06 13:07:00,
2013-08-06 09:08:00,66.9,55.6,30.13,SW,219,0.0,0.0,67,0.00,,---,0.00,VWS V14.01,2013-08-06 13:08:00,
2013-08-06 09:09:00,66.9,54.8,30.13,SSW,205,0.0,0.0,65,0.00,,---,0.00,VWS V14.01,2013-08-06 13:09:00,
2013-08-06 09:10:00,67.0,55.3,30.12,NNE,27,0.0,0.0,66,0.00,,---,0.00,VWS V14.01,2013-08-06 13:10:00,
2013-08-06 09:11:00,67.1,55.0,30.13,SE,143,0.0,0.0,65,0.00,,---,0.00,VWS V14.01,2013-08-06 13:11:00,
2013-08-06 09:13:00,67.0,55.3,30.12,SW,235,0.0,0.0,66,0.00,,---,0.00,VWS V14.01,2013-08-06 13:13:00,
2013-08-06 09:14:00,67.1,55.4,30.13,SSE,154,0.0,0.0,66,0.00,,---,0.00,VWS V14.01,2013-08-06 13:14:00,
2013-08-06 09:17:00,66.9,55.2,30.13,WNW,290,0.0,0.0,66,0.00,,---,0.00,VWS V14.01,2013-08-06 13:17:00,
2013-08-06 09:19:00,66.8,53.8,30.13,SE,129,0.0,0.0,63,0.00,,---,0.00,VWS V14.01,2013-08-06 13:19:00,
2013-08-06 09:20:00,66.8,54.2,30.13,SE,135,0.0,0.0,64,0.00,,---,0.00,VWS V14.01,2013-08-06 13:20:00,
2013-08-06 09:22:00,66.4,53.9,30.13,SSW,195,0.0,0.0,64,0.00,,---,0.00,VWS V14.01,2013-08-06 13:22:00,
2013-08-06 09:25:00,66.4,54.3,30.13,SW,235,0.0,0.0,65,0.00,,---,0.00,VWS V14.01,2013-08-06 13:25:00,
2013-08-06 09:26:00,66.2,53.7,30.12,WSW,238,0.0,0.0,64,0.00,,---,0.00,VWS V14.01,2013-08-06 13:26:00,
2013-08-06 09:28:00,66.3,54.6,30.12,SSW,207,0.0,0.0,66,0.00,,---,0.00,VWS V14.01,2013-08-06 13:28:00,
2013-08-06 09:30:00,66.6,54.9,30.12,SW,225,0.0,0.0,66,0.00,,---,0.00,VWS V14.01,2013-08-06 13:30:00,
2013-08-06 09:31:00,66.6,54.1,30.12,WSW,256,0.0,0.0,64,0.00,,---,0.00,VWS V14.01,2013-08-06 13:31:00,
2013-08-06 09:32:00,66.6,54.1,30.12,SW,221,0.0,1.0,64,0.00,,---,0.00,VWS V14.01,2013-08-06 13:32:00,
2013-08-06 09:33:00,66.7,54.6,30.12,North,349,0.0,1.0,65,0.00,,---,0.00,VWS V14.01,2013-08-06 13:33:00,
2013-08-06 09:35:00,66.8,54.7,30.12,WNW,283,0.0,1.0,65,0.00,,---,0.00,VWS V14.01,2013-08-06 13:35:00,
2013-08-06 09:37:00,66.7,54.2,30.12,SW,233,0.0,1.0,64,0.00,,---,0.00,VWS V14.01,2013-08-06 13:37:00,
2013-08-06 09:38:00,66.6,53.6,30.12,WSW,256,0.0,1.0,63,0.00,,---,0.00,VWS V14.01,2013-08-06 13:38:00,
2013-08-06 09:40:00,66.8,54.2,30.12,SW,225,0.0,1.0,64,0.00,,---,0.00,VWS V14.01,2013-08-06 13:40:00,
2013-08-06 09:41:00,66.9,54.3,30.12,South,190,0.0,1.0,64,0.00,,---,0.00,VWS V14.01,2013-08-06 13:41:00,
2013-08-06 09:42:00,67.2,53.8,30.12,SW,235,0.0,1.0,62,0.00,,---,0.00,VWS V14.01,2013-08-06 13:42:00,
2013-08-06 09:43:00,67.3,53.8,30.12,WSW,257,0.0,1.0,62,0.00,,---,0.00,VWS V14.01,2013-08-06 13:43:00,
2013-08-06 09:44:00,67.3,53.8,30.12,West,260,0.0,1.0,62,0.00,,---,0.00,VWS V14.01,2013-08-06 13:44:00,
2013-08-06 09:45:00,67.3,53.4,30.13,SW,217,0.0,1.0,61,0.00,,---,0.00,VWS V14.01,2013-08-06 13:45:00,
2013-08-06 09:46:00,67.4,53.9,30.13,West,264,0.0,1.0,62,0.00,,---,0.00,VWS V14.01,2013-08-06 13:46:00,
2013-08-06 09:47:00,67.7,53.3,30.13,WSW,250,0.0,1.0,60,0.00,,---,0.00,VWS V14.01,2013-08-06 13:47:00,
2013-08-06 09:48:00,67.8,53.4,30.13,WSW,248,0.0,1.0,60,0.00,,---,0.00,VWS V14.01,2013-08-06 13:48:00,
2013-08-06 09:50:00,68.0,54.1,30.13,ENE,65,0.0,1.0,61,0.00,,---,0.00,VWS V14.01,2013-08-06 13:50:00,
2013-08-06 09:51:00,68.1,53.2,30.13,SW,222,0.0,1.0,59,0.00,,---,0.00,VWS V14.01,2013-08-06 13:51:00,
2013-08-06 09:52:00,68.1,53.2,30.13,SW,224,0.0,1.0,59,0.00,,---,0.00,VWS V14.01,2013-08-06 13:52:00,
2013-08-06 09:54:00,67.8,54.3,30.13,SSW,212,0.0,1.0,62,0.00,,---,0.00,VWS V14.01,2013-08-06 13:54:00,
2013-08-06 09:55:00,67.8,54.3,30.13,SSW,212,0.0,1.0,62,0.00,,---,0.00,VWS V14.01,2013-08-06 13:55:00,
2013-08-06 09:56:00,68.0,54.5,30.13,ESE,113,0.0,1.0,62,0.00,,---,0.00,VWS V14.01,2013-08-06 13:56:00,
2013-08-06 09:57:00,68.2,54.7,30.13,SE,134,0.0,1.0,62,0.00,,---,0.00,VWS V14.01,2013-08-06 13:57:00,
2013-08-06 10:01:00,68.6,53.7,30.13,SW,232,4.0,4.0,59,0.00,,---,0.00,VWS V14.01,2013-08-06 14:01:00,
2013-08-06 10:02:00,68.4,53.1,30.13,South,169,1.0,5.0,58,0.00,,---,0.00,VWS V14.01,2013-08-06 14:02:00,
2013-08-06 10:03:00,68.2,53.8,30.13,West,274,3.0,5.0,60,0.00,,---,0.00,VWS V14.01,2013-08-06 14:03:00,
2013-08-06 10:06:00,67.9,53.1,30.13,SW,236,4.0,5.0,59,0.00,,---,0.00,VWS V14.01,2013-08-06 14:06:00,
2013-08-06 10:07:00,67.8,53.4,30.13,SW,232,2.0,5.0,60,0.00,,---,0.00,VWS V14.01,2013-08-06 14:07:00,
2013-08-06 10:08:00,67.8,53.4,30.13,WSW,255,1.0,7.0,60,0.00,,---,0.00,VWS V14.01,2013-08-06 14:08:00,
2013-08-06 10:11:00,68.0,53.2,30.13,SSE,154,3.0,7.0,59,0.00,,---,0.00,VWS V14.01,2013-08-06 14:11:00,
2013-08-06 10:12:00,68.0,53.2,30.13,WSW,248,2.0,7.0,59,0.00,,---,0.00,VWS V14.01,2013-08-06 14:12:00,
2013-08-06 10:13:00,68.3,53.9,30.13,ESE,105,1.0,7.0,60,0.00,,---,0.00,VWS V14.01,2013-08-06 14:13:00,
2013-08-06 10:14:00,68.4,53.1,30.13,West,264,3.0,7.0,58,0.00,,---,0.00,VWS V14.01,2013-08-06 14:14:00,
2013-08-06 10:17:00,68.6,52.3,30.13,NW,315,0.0,7.0,56,0.00,,---,0.00,VWS V14.01,2013-08-06 14:17:00,
2013-08-06 10:18:00,68.6,53.2,30.13,West,260,0.0,7.0,58,0.00,,---,0.00,VWS V14.01,2013-08-06 14:18:00,
2013-08-06 10:19:00,68.8,53.4,30.13,East,86,2.0,7.0,58,0.00,,---,0.00,VWS V14.01,2013-08-06 14:19:00,
2013-08-06 10:20:00,69.0,54.1,30.13,West,263,3.0,7.0,59,0.00,,---,0.00,VWS V14.01,2013-08-06 14:20:00,
2013-08-06 10:22:00,69.0,53.6,30.13,WSW,257,4.0,7.0,58,0.00,,---,0.00,VWS V14.01,2013-08-06 14:22:00,
2013-08-06 10:23:00,68.9,53.1,30.13,WSW,249,0.0,7.0,57,0.00,,---,0.00,VWS V14.01,2013-08-06 14:23:00,
2013-08-06 10:24:00,68.8,53.0,30.13,SW,230,2.0,7.0,57,0.00,,---,0.00,VWS V14.01,2013-08-06 14:24:00,
2013-08-06 10:25:00,68.8,53.4,30.13,NW,311,3.0,7.0,58,0.00,,---,0.00,VWS V14.01,2013-08-06 14:25:00,
2013-08-06 10:27:00,68.8,53.4,30.13,WSW,239,3.0,7.0,58,0.00,,---,0.00,VWS V14.01,2013-08-06 14:27:00,
2013-08-06 10:28:00,68.8,53.4,30.13,SW,230,4.0,7.0,58,0.00,,---,0.00,VWS V14.01,2013-08-06 14:28:00,
2013-08-06 10:29:00,68.6,51.8,30.13,WSW,250,1.0,5.0,55,0.00,,---,0.00,VWS V14.01,2013-08-06 14:29:00,
2013-08-06 10:31:00,68.4,52.6,30.13,SW,219,0.0,5.0,57,0.00,,---,0.00,VWS V14.01,2013-08-06 14:31:00,
2013-08-06 10:32:00,68.5,52.7,30.13,SW,231,2.0,5.0,57,0.00,,---,0.00,VWS V14.01,2013-08-06 14:32:00,
2013-08-06 10:33:00,68.5,52.2,30.13,WSW,256,2.0,5.0,56,0.00,,---,0.00,VWS V14.01,2013-08-06 14:33:00,
2013-08-06 10:34:00,68.6,52.8,30.13,WSW,242,2.0,6.0,57,0.00,,---,0.00,VWS V14.01,2013-08-06 14:34:00,
2013-08-06 10:37:00,68.7,51.9,30.13,West,271,2.0,6.0,55,0.00,,---,0.00,VWS V14.01,2013-08-06 14:37:00,
2013-08-06 10:38:00,68.6,51.8,30.13,WSW,245,2.0,6.0,55,0.00,,---,0.00,VWS V14.01,2013-08-06 14:38:00,
2013-08-06 10:39:00,68.4,51.1,30.13,WSW,247,3.0,6.0,54,0.00,,---,0.00,VWS V14.01,2013-08-06 14:39:00,
2013-08-06 10:40:00,68.4,51.1,30.13,West,260,1.0,6.0,54,0.00,,---,0.00,VWS V14.01,2013-08-06 14:40:00,
2013-08-06 10:43:00,68.7,52.4,30.13,West,260,2.0,6.0,56,0.00,,---,0.00,VWS V14.01,2013-08-06 14:43:00,
2013-08-06 10:45:00,68.9,52.6,30.13,NW,315,0.0,6.0,56,0.00,,---,0.00,VWS V14.01,2013-08-06 14:45:00,
2013-08-06 10:48:00,70.1,53.7,30.13,SSW,208,2.0,6.0,56,0.00,,---,0.00,VWS V14.01,2013-08-06 14:48:00,
2013-08-06 10:49:00,70.3,53.9,30.13,WSW,241,1.0,6.0,56,0.00,,---,0.00,VWS V14.01,2013-08-06 14:49:00,
2013-08-06 10:50:00,70.3,52.9,30.13,WSW,245,2.0,6.0,54,0.00,,---,0.00,VWS V14.01,2013-08-06 14:50:00,
2013-08-06 10:51:00,70.3,52.9,30.13,West,276,4.0,6.0,54,0.00,,---,0.00,VWS V14.01,2013-08-06 14:51:00,
2013-08-06 10:54:00,69.9,53.5,30.13,NW,314,0.0,6.0,56,0.00,,---,0.00,VWS V14.01,2013-08-06 14:54:00,
2013-08-06 10:55:00,70.1,54.2,30.13,West,260,0.0,6.0,57,0.00,,---,0.00,VWS V14.01,2013-08-06 14:55:00,
2013-08-06 10:56:00,70.5,54.1,30.12,South,186,0.0,6.0,56,0.00,,---,0.00,VWS V14.01,2013-08-06 14:56:00,
2013-08-06 10:59:00,71.8,54.8,30.13,South,189,2.0,2.0,55,0.00,,---,0.00,VWS V14.01,2013-08-06 14:59:00,
2013-08-06 11:00:00,72.1,55.1,30.13,ENE,67,1.0,4.0,55,0.00,,---,0.00,VWS V14.01,2013-08-06 15:00:00,
2013-08-06 11:01:00,72.2,55.2,30.13,SE,125,2.0,4.0,55,0.00,,---,0.00,VWS V14.01,2013-08-06 15:01:00,
2013-08-06 11:02:00,72.3,54.7,30.13,SE,136,3.0,4.0,54,0.00,,---,0.00,VWS V14.01,2013-08-06 15:02:00,
2013-08-06 11:05:00,71.7,55.7,30.13,WNW,285,0.0,4.0,57,0.00,,---,0.00,VWS V14.01,2013-08-06 15:05:00,
2013-08-06 11:06:00,71.6,55.1,30.13,ESE,118,3.0,4.0,56,0.00,,---,0.00,VWS V14.01,2013-08-06 15:06:00,
2013-08-06 11:07:00,71.4,56.3,30.13,SE,142,2.0,4.0,59,0.00,,---,0.00,VWS V14.01,2013-08-06 15:07:00,
2013-08-06 11:10:00,71.3,55.8,30.12,SE,136,3.0,4.0,58,0.00,,---,0.00,VWS V14.01,2013-08-06 15:10:00,
2013-08-06 11:11:00,71.1,55.6,30.12,SSE,147,2.0,4.0,58,0.00,,---,0.00,VWS V14.01,2013-08-06 15:11:00,
2013-08-06 11:12:00,71.1,55.6,30.12,SE,136,1.0,4.0,58,0.00,,---,0.00,VWS V14.01,2013-08-06 15:12:00,
2013-08-06 11:14:00,71.0,56.4,30.12,SSE,153,2.0,4.0,60,0.00,,---,0.00,VWS V14.01,2013-08-06 15:14:00,
2013-08-06 11:16:00,70.5,55.5,30.12,ESE,108,2.0,4.0,59,0.00,,---,0.00,VWS V14.01,2013-08-06 15:16:00,
2013-08-06 11:17:00,70.1,56.5,30.12,ESE,106,4.0,4.0,62,0.00,,---,0.00,VWS V14.01,2013-08-06 15:17:00,
2013-08-06 11:18:00,69.9,55.8,30.12,ESE,109,3.0,4.0,61,0.00,,---,0.00,VWS V14.01,2013-08-06 15:18:00,
2013-08-06 11:19:00,69.6,55.6,30.12,ESE,123,3.0,4.0,61,0.00,,---,0.00,VWS V14.01,2013-08-06 15:19:00,
2013-08-06 11:22:00,69.2,56.1,30.12,ESE,110,3.0,4.0,63,0.00,,---,0.00,VWS V14.01,2013-08-06 15:22:00,
2013-08-06 11:23:00,69.1,55.5,30.12,SE,129,2.0,4.0,62,0.00,,---,0.00,VWS V14.01,2013-08-06 15:23:00,
2013-08-06 11:24:00,69.0,55.9,30.12,ESE,122,3.0,4.0,63,0.00,,---,0.00,VWS V14.01,2013-08-06 15:24:00,
2013-08-06 11:27:00,69.1,55.5,30.12,SE,128,1.0,4.0,62,0.00,,---,0.00,VWS V14.01,2013-08-06 15:27:00,
2013-08-06 11:29:00,69.7,55.7,30.12,ESE,118,0.0,1.0,61,0.00,,---,0.00,VWS V14.01,2013-08-06 15:29:00,
2013-08-06 11:33:00,71.4,54.9,30.12,SE,143,1.0,2.0,56,0.00,,---,0.00,VWS V14.01,2013-08-06 15:33:00,
2013-08-06 11:34:00,71.7,55.7,30.12,SE,125,1.0,2.0,57,0.00,,---,0.00,VWS V14.01,2013-08-06 15:34:00,
2013-08-06 11:38:00,71.5,56.4,30.12,ESE,110,2.0,3.0,59,0.00,,---,0.00,VWS V14.01,2013-08-06 15:38:00,
2013-08-06 11:39:00,71.5,56.9,30.12,SE,141,1.0,3.0,60,0.00,,---,0.00,VWS V14.01,2013-08-06 15:39:00,
2013-08-06 11:44:00,73.3,57.2,30.12,SSE,162,0.0,3.0,57,0.00,,---,0.00,VWS V14.01,2013-08-06 15:44:00,
2013-08-06 11:45:00,73.7,58.0,30.12,SE,136,1.0,3.0,58,0.00,,---,0.00,VWS V14.01,2013-08-06 15:45:00,
2013-08-06 11:46:00,73.9,58.2,30.12,ESE,122,1.0,3.0,58,0.00,,---,0.00,VWS V14.01,2013-08-06 15:46:00,
2013-08-06 11:49:00,74.2,56.5,30.12,ESE,108,1.0,3.0,54,0.00,,---,0.00,VWS V14.01,2013-08-06 15:49:00,
2013-08-06 11:50:00,74.2,57.0,30.12,ESE,115,1.0,3.0,55,0.00,,---,0.00,VWS V14.01,2013-08-06 15:50:00,
2013-08-06 11:51:00,74.2,57.5,30.12,SSE,156,3.0,3.0,56,0.00,,---,0.00,VWS V14.01,2013-08-06 15:51:00,
2013-08-06 11:52:00,74.3,57.1,30.12,SE,139,1.0,3.0,55,0.00,,---,0.00,VWS V14.01,2013-08-06 15:52:00,
2013-08-06 11:54:00,74.6,57.4,30.12,SE,136,0.0,3.0,55,0.00,,---,0.00,VWS V14.01,2013-08-06 15:54:00,
2013-08-06 11:56:00,75.0,55.7,30.12,North,1,1.0,3.0,51,0.00,,---,0.00,VWS V14.01,2013-08-06 15:56:00,
2013-08-06 11:57:00,75.3,58.0,30.12,SSE,153,0.0,3.0,55,0.00,,---,0.00,VWS V14.01,2013-08-06 15:57:00,
2013-08-06 12:01:00,75.8,55.3,30.12,SE,136,0.0,1.0,49,0.00,,---,0.00,VWS V14.01,2013-08-06 16:01:00,
2013-08-06 12:02:00,75.6,53.4,30.12,ESE,121,0.0,1.0,46,0.00,,---,0.00,VWS V14.01,2013-08-06 16:02:00,
2013-08-06 12:03:00,75.5,53.9,30.12,SE,124,1.0,1.0,47,0.00,,---,0.00,VWS V14.01,2013-08-06 16:03:00,
2013-08-06 12:05:00,74.9,53.3,30.12,ESE,121,2.0,2.0,47,0.00,,---,0.00,VWS V14.01,2013-08-06 16:05:00,
2013-08-06 12:08:00,74.0,54.7,30.12,SE,129,0.0,2.0,51,0.00,,---,0.00,VWS V14.01,2013-08-06 16:08:00,
2013-08-06 12:09:00,73.8,53.5,30.12,SE,129,0.0,2.0,49,0.00,,---,0.00,VWS V14.01,2013-08-06 16:09:00,
2013-08-06 12:10:00,73.8,54.0,30.12,SE,127,1.0,2.0,50,0.00,,---,0.00,VWS V14.01,2013-08-06 16:10:00,
2013-08-06 12:13:00,73.5,53.7,30.12,ESE,118,0.0,2.0,50,0.00,,---,0.00,VWS V14.01,2013-08-06 16:13:00,
2013-08-06 12:14:00,73.4,53.7,30.12,ESE,118,0.0,2.0,50,0.00,,---,0.00,VWS V14.01,2013-08-06 16:14:00,
2013-08-06 12:15:00,73.5,54.3,30.12,East,98,1.0,2.0,51,0.00,,---,0.00,VWS V14.01,2013-08-06 16:15:00,
2013-08-06 12:18:00,74.2,53.8,30.11,ESE,110,1.0,2.0,49,0.00,,---,0.00,VWS V14.01,2013-08-06 16:18:00,
2013-08-06 12:19:00,74.4,54.0,30.11,ESE,110,0.0,2.0,49,0.00,,---,0.00,VWS V14.01,2013-08-06 16:19:00,
2013-08-06 12:21:00,75.1,52.3,30.11,ESE,110,0.0,2.0,45,0.00,,---,0.00,VWS V14.01,2013-08-06 16:21:00,
2013-08-06 12:22:00,75.3,53.7,30.11,ESE,105,1.0,2.0,47,0.00,,---,0.00,VWS V14.01,2013-08-06 16:22:00,
2013-08-06 12:25:00,75.6,53.4,30.11,ESE,108,2.0,2.0,46,0.00,,---,0.00,VWS V14.01,2013-08-06 16:25:00,
2013-08-06 12:26:00,75.5,53.3,30.11,SE,128,2.0,2.0,46,0.00,,---,0.00,VWS V14.01,2013-08-06 16:26:00,
2013-08-06 12:27:00,75.1,51.7,30.11,SE,140,1.0,2.0,44,0.00,,---,0.00,VWS V14.01,2013-08-06 16:27:00,
2013-08-06 12:28:00,74.9,52.2,30.11,SE,127,3.0,3.0,45,0.00,,---,0.00,VWS V14.01,2013-08-06 16:28:00,
2013-08-06 12:29:00,75.8,53.0,30.12,SW,230,2.0,4.0,45,0.00,,---,0.00,VWS V14.01,2013-08-06 16:29:00,
2013-08-06 12:31:00,73.9,51.2,30.11,ESE,117,3.0,4.0,45,0.00,,---,0.00,VWS V14.01,2013-08-06 16:31:00,
2013-08-06 12:32:00,73.8,52.9,30.11,East,96,2.0,4.0,48,0.00,,---,0.00,VWS V14.01,2013-08-06 16:32:00,
2013-08-06 12:33:00,73.6,52.2,30.11,East,89,3.0,4.0,47,0.00,,---,0.00,VWS V14.01,2013-08-06 16:33:00,
2013-08-06 12:34:00,76.0,51.9,30.11,SSW,205,1.0,2.0,43,0.00,,---,0.00,VWS V14.01,2013-08-06 16:34:00,
2013-08-06 12:37:00,73.2,49.4,30.11,ESE,110,3.0,4.0,43,0.00,,---,0.00,VWS V14.01,2013-08-06 16:37:00,
2013-08-06 12:38:00,73.1,49.3,30.11,SE,143,3.0,4.0,43,0.00,,---,0.00,VWS V14.01,2013-08-06 16:38:00,
2013-08-06 12:39:00,76.7,52.5,30.11,ESE,105,1.0,2.0,43,0.00,,---,0.00,VWS V14.01,2013-08-06 16:39:00,
2013-08-06 12:40:00,76.8,52.0,30.11,ESE,103,0.0,2.0,42,0.00,,---,0.00,VWS V14.01,2013-08-06 16:40:00,
2013-08-06 12:41:00,76.9,52.1,30.11,ESE,105,0.0,2.0,42,0.00,,---,0.00,VWS V14.01,2013-08-06 16:41:00,
2013-08-06 12:42:00,77.0,52.8,30.11,SE,128,0.0,2.0,43,0.00,,---,0.00,VWS V14.01,2013-08-06 16:42:00,
2013-08-06 12:43:00,73.5,49.7,30.11,East,81,1.0,4.0,43,0.00,,---,0.00,VWS V14.01,2013-08-06 16:43:00,
2013-08-06 12:44:00,73.9,49.4,30.11,SE,130,0.0,4.0,42,0.00,,---,0.00,VWS V14.01,2013-08-06 16:44:00,
2013-08-06 12:45:00,78.1,53.8,30.11,SE,146,1.0,2.0,43,0.00,,---,0.00,VWS V14.01,2013-08-06 16:45:00,
2013-08-06 12:46:00,78.5,53.5,30.11,WSW,242,3.0,5.0,42,0.00,,---,0.00,VWS V14.01,2013-08-06 16:46:00,
2013-08-06 12:48:00,75.7,49.7,30.11,WNW,290,1.0,4.0,40,0.00,,---,0.00,VWS V14.01,2013-08-06 16:48:00,
2013-08-06 12:49:00,76.0,50.6,30.11,ESE,118,1.0,4.0,41,0.00,,---,0.00,VWS V14.01,2013-08-06 16:49:00,
2013-08-06 12:50:00,76.2,50.8,30.11,SE,131,2.0,4.0,41,0.00,,---,0.00,VWS V14.01,2013-08-06 16:50:00,
2013-08-06 12:54:00,75.0,49.7,30.11,SE,124,2.0,4.0,41,0.00,,---,0.00,VWS V14.01,2013-08-06 16:54:00,
2013-08-06 12:55:00,74.7,50.1,30.12,East,100,2.0,4.0,42,0.00,,---,0.00,VWS V14.01,2013-08-06 16:55:00,
2013-08-06 12:57:00,74.2,49.0,30.12,East,101,0.0,4.0,41,0.00,,---,0.00,VWS V14.01,2013-08-06 16:57:00,
2013-08-06 12:59:00,74.5,51.2,30.12,WSW,240,0.0,0.0,44,0.00,,---,0.00,VWS V14.01,2013-08-06 16:59:00,
2013-08-06 13:00:00,75.0,51.6,30.11,West,260,1.0,1.0,44,0.00,,---,0.00,VWS V14.01,2013-08-06 17:00:00,
2013-08-06 13:02:00,76.0,50.0,30.11,SW,214,0.0,1.0,40,0.00,,---,0.00,VWS V14.01,2013-08-06 17:02:00,
2013-08-06 13:04:00,77.1,50.3,30.12,SSW,213,1.0,2.0,39,0.00,,---,0.00,VWS V14.01,2013-08-06 17:04:00,
2013-08-06 13:05:00,77.5,51.3,30.12,WSW,239,0.0,2.0,40,0.00,,---,0.00,VWS V14.01,2013-08-06 17:05:00,
2013-08-06 13:07:00,78.1,50.5,30.12,East,95,1.0,2.0,38,0.00,,---,0.00,VWS V14.01,2013-08-06 17:07:00,
2013-08-06 13:10:00,77.8,48.7,30.12,NE,53,1.0,3.0,36,0.00,,---,0.00,VWS V14.01,2013-08-06 17:10:00,
2013-08-06 13:11:00,77.7,49.4,30.12,SE,136,2.0,3.0,37,0.00,,---,0.00,VWS V14.01,2013-08-06 17:11:00,
2013-08-06 13:12:00,77.5,49.2,30.12,East,96,3.0,3.0,37,0.00,,---,0.00,VWS V14.01,2013-08-06 17:12:00,
2013-08-06 13:13:00,77.2,49.7,30.12,ESE,120,3.0,4.0,38,0.00,,---,0.00,VWS V14.01,2013-08-06 17:13:00,
2013-08-06 13:16:00,76.5,49.0,30.12,SE,146,1.0,4.0,38,0.00,,---,0.00,VWS V14.01,2013-08-06 17:16:00,
2013-08-06 13:17:00,76.4,48.9,30.12,SE,143,1.0,4.0,38,0.00,,---,0.00,VWS V14.01,2013-08-06 17:17:00,
2013-08-06 13:19:00,76.1,50.0,30.12,ESE,115,3.0,4.0,40,0.00,,---,0.00,VWS V14.01,2013-08-06 17:19:00,
2013-08-06 13:22:00,75.7,53.5,30.11,ESE,122,2.0,4.0,46,0.00,,---,0.00,VWS V14.01,2013-08-06 17:22:00,
2013-08-06 13:23:00,75.6,52.2,30.11,SSW,208,2.0,4.0,44,0.00,,---,0.00,VWS V14.01,2013-08-06 17:23:00,
2013-08-06 13:24:00,75.6,52.2,30.11,SW,217,3.0,4.0,44,0.00,,---,0.00,VWS V14.01,2013-08-06 17:24:00,
2013-08-06 13:27:00,75.8,53.0,30.12,SW,220,2.0,4.0,45,0.00,,---,0.00,VWS V14.01,2013-08-06 17:27:00,
2013-08-06 13:29:00,75.9,53.1,30.11,SSW,207,0.0,1.0,45,0.00,,---,0.00,VWS V14.01,2013-08-06 17:29:00,
2013-08-06 13:30:00,76.1,52.0,30.12,WSW,250,1.0,1.0,43,0.00,,---,0.00,VWS V14.01,2013-08-06 17:30:00,
2013-08-06 13:33:00,75.9,51.8,30.11,SSW,204,0.0,2.0,43,0.00,,---,0.00,VWS V14.01,2013-08-06 17:33:00,
2013-08-06 13:35:00,76.1,52.0,30.11,South,180,0.0,2.0,43,0.00,,---,0.00,VWS V14.01,2013-08-06 17:35:00,
2013-08-06 13:36:00,76.4,52.3,30.11,SSE,164,0.0,2.0,43,0.00,,---,0.00,VWS V14.01,2013-08-06 17:36:00,
2013-08-06 13:38:00,76.9,52.1,30.11,ESE,103,0.0,2.0,42,0.00,,---,0.00,VWS V14.01,2013-08-06 17:38:00,
2013-08-06 13:40:00,77.2,53.0,30.11,ESE,123,0.0,2.0,43,0.00,,---,0.00,VWS V14.01,2013-08-06 17:40:00,
2013-08-06 13:42:00,77.6,52.1,30.12,SSE,147,1.0,2.0,41,0.00,,---,0.00,VWS V14.01,2013-08-06 17:42:00,
2013-08-06 13:44:00,78.4,52.8,30.11,WSW,238,1.0,2.0,41,0.00,,---,0.00,VWS V14.01,2013-08-06 17:44:00,
2013-08-06 13:46:00,78.1,53.2,30.12,West,270,1.0,5.0,42,0.00,,---,0.00,VWS V14.01,2013-08-06 17:46:00,
2013-08-06 13:47:00,77.6,53.4,30.12,ESE,121,1.0,5.0,43,0.00,,---,0.00,VWS V14.01,2013-08-06 17:47:00,
2013-08-06 13:49:00,77.5,53.3,30.12,SSE,149,0.0,5.0,43,0.00,,---,0.00,VWS V14.01,2013-08-06 17:49:00,
2013-08-06 13:50:00,77.7,53.5,30.12,WSW,245,2.0,5.0,43,0.00,,---,0.00,VWS V14.01,2013-08-06 17:50:00,
2013-08-06 13:51:00,77.5,52.0,30.12,West,263,6.0,6.0,41,0.00,,---,0.00,VWS V14.01,2013-08-06 17:51:00,
2013-08-06 13:54:00,76.8,53.9,30.11,ENE,65,1.0,6.0,45,0.00,,---,0.00,VWS V14.01,2013-08-06 17:54:00,
2013-08-06 13:57:00,76.3,53.4,30.11,South,177,0.0,6.0,45,0.00,,---,0.00,VWS V14.01,2013-08-06 17:57:00,
2013-08-06 13:59:00,76.5,55.4,30.11,South,176,4.0,4.0,48,0.00,,---,0.00,VWS V14.01,2013-08-06 17:59:00,
2013-08-06 14:01:00,76.6,52.5,30.11,SE,127,2.0,4.0,43,0.00,,---,0.00,VWS V14.01,2013-08-06 18:01:00,
2013-08-06 14:02:00,76.3,52.2,30.11,SE,125,3.0,4.0,43,0.00,,---,0.00,VWS V14.01,2013-08-06 18:02:00,
2013-08-06 14:04:00,75.7,52.9,30.11,SE,129,3.0,4.0,45,0.00,,---,0.00,VWS V14.01,2013-08-06 18:04:00,
2013-08-06 14:06:00,75.3,53.7,30.11,ESE,106,3.0,6.0,47,0.00,,---,0.00,VWS V14.01,2013-08-06 18:06:00,
2013-08-06 14:07:00,75.0,52.2,30.11,East,97,2.0,6.0,45,0.00,,---,0.00,VWS V14.01,2013-08-06 18:07:00,
2013-08-06 14:08:00,74.7,52.0,30.11,East,98,3.0,6.0,45,0.00,,---,0.00,VWS V14.01,2013-08-06 18:08:00,
2013-08-06 14:11:00,74.3,52.2,30.11,ESE,123,4.0,6.0,46,0.00,,---,0.00,VWS V14.01,2013-08-06 18:11:00,
2013-08-06 14:12:00,74.2,52.1,30.11,ESE,122,3.0,6.0,46,0.00,,---,0.00,VWS V14.01,2013-08-06 18:12:00,
2013-08-06 14:14:00,74.3,52.8,30.11,NE,36,2.0,6.0,47,0.00,,---,0.00,VWS V14.01,2013-08-06 18:14:00,
2013-08-06 14:17:00,75.3,51.9,30.11,SE,146,0.0,6.0,44,0.00,,---,0.00,VWS V14.01,2013-08-06 18:17:00,
2013-08-06 14:19:00,76.0,52.5,30.11,WSW,255,1.0,6.0,44,0.00,,---,0.00,VWS V14.01,2013-08-06 18:19:00,
2013-08-06 14:21:00,76.6,53.7,30.11,East,93,1.0,6.0,45,0.00,,---,0.00,VWS V14.01,2013-08-06 18:21:00,
2013-08-06 14:23:00,76.8,52.6,30.11,SE,128,2.0,6.0,43,0.00,,---,0.00,VWS V14.01,2013-08-06 18:23:00,
2013-08-06 14:26:00,76.5,53.0,30.11,SSE,159,0.0,6.0,44,0.00,,---,0.00,VWS V14.01,2013-08-06 18:26:00,
2013-08-06 14:27:00,76.7,53.2,30.11,NE,46,0.0,6.0,44,0.00,,---,0.00,VWS V14.01,2013-08-06 18:27:00,
2013-08-06 14:28:00,77.1,52.9,30.11,SW,226,1.0,6.0,43,0.00,,---,0.00,VWS V14.01,2013-08-06 18:28:00,
2013-08-06 14:31:00,76.9,51.4,30.11,SSW,207,1.0,4.0,41,0.00,,---,0.00,VWS V14.01,2013-08-06 18:31:00,
2013-08-06 14:33:00,76.6,51.2,30.11,WSW,242,4.0,4.0,41,0.00,,---,0.00,VWS V14.01,2013-08-06 18:33:00,
2013-08-06 14:34:00,76.3,52.8,30.11,South,172,2.0,4.0,44,0.00,,---,0.00,VWS V14.01,2013-08-06 18:34:00,
2013-08-06 14:37:00,76.9,52.7,30.11,ESE,106,2.0,5.0,43,0.00,,---,0.00,VWS V14.01,2013-08-06 18:37:00,
2013-08-06 14:38:00,77.1,53.5,30.11,SSE,157,4.0,5.0,44,0.00,,---,0.00,VWS V14.01,2013-08-06 18:38:00,
2013-08-06 14:39:00,77.2,53.6,30.11,NNE,29,1.0,5.0,44,0.00,,---,0.00,VWS V14.01,2013-08-06 18:39:00,
2013-08-06 14:41:00,77.4,53.8,30.11,East,87,1.0,6.0,44,0.00,,---,0.00,VWS V14.01,2013-08-06 18:41:00,
2013-08-06 14:42:00,77.7,52.2,30.11,SE,143,4.0,6.0,41,0.00,,---,0.00,VWS V14.01,2013-08-06 18:42:00,
2013-08-06 14:44:00,77.6,52.1,30.11,WNW,292,3.0,6.0,41,0.00,,---,0.00,VWS V14.01,2013-08-06 18:44:00,
2013-08-06 14:45:00,77.6,52.1,30.11,SSE,153,3.0,6.0,41,0.00,,---,0.00,VWS V14.01,2013-08-06 18:45:00,
2013-08-06 14:46:00,77.4,53.2,30.11,SW,222,5.0,9.0,43,0.00,,---,0.00,VWS V14.01,2013-08-06 18:46:00,
2013-08-06 14:47:00,77.1,52.9,30.11,SW,214,1.0,9.0,43,0.00,,---,0.00,VWS V14.01,2013-08-06 18:47:00,
2013-08-06 14:49:00,77.1,52.3,30.11,East,101,4.0,9.0,42,0.00,,---,0.00,VWS V14.01,2013-08-06 18:49:00,
2013-08-06 14:50:00,77.1,52.3,30.11,South,181,3.0,9.0,42,0.00,,---,0.00,VWS V14.01,2013-08-06 18:50:00,
2013-08-06 14:51:00,77.1,52.3,30.11,South,186,1.0,9.0,42,0.00,,---,0.00,VWS V14.01,2013-08-06 18:51:00,
2013-08-06 14:53:00,77.4,51.9,30.11,SSW,204,0.0,9.0,41,0.00,,---,0.00,VWS V14.01,2013-08-06 18:53:00,
2013-08-06 14:54:00,77.4,51.9,30.11,WSW,250,5.0,9.0,41,0.00,,---,0.00,VWS V14.01,2013-08-06 18:54:00,
2013-08-06 14:56:00,76.9,52.7,30.11,ESE,110,1.0,9.0,43,0.00,,---,0.00,VWS V14.01,2013-08-06 18:56:00,
2013-08-06 14:58:00,76.9,52.7,30.11,West,271,4.0,9.0,43,0.00,,---,0.00,VWS V14.01,2013-08-06 18:58:00,
2013-08-06 15:00:00,76.6,51.2,30.11,SSW,208,7.0,9.0,41,0.00,,---,0.00,VWS V14.01,2013-08-06 19:00:00,
2013-08-06 15:01:00,76.4,51.6,30.11,ESE,118,3.0,9.0,42,0.00,,---,0.00,VWS V14.01,2013-08-06 19:01:00,
2013-08-06 15:03:00,76.4,52.3,30.11,East,91,3.0,9.0,43,0.00,,---,0.00,VWS V14.01,2013-08-06 19:03:00,
2013-08-06 15:04:00,76.5,51.7,30.11,SSE,147,1.0,9.0,42,0.00,,---,0.00,VWS V14.01,2013-08-06 19:04:00,
2013-08-06 15:07:00,76.8,51.3,30.11,SE,141,3.0,9.0,41,0.00,,---,0.00,VWS V14.01,2013-08-06 19:07:00,
2013-08-06 15:08:00,76.9,51.4,30.11,South,186,2.0,9.0,41,0.00,,---,0.00,VWS V14.01,2013-08-06 19:08:00,
2013-08-06 15:09:00,77.1,54.2,30.11,SSW,207,2.0,9.0,45,0.00,,---,0.00,VWS V14.01,2013-08-06 19:09:00,
2013-08-06 15:10:00,77.4,52.5,30.11,SSW,197,3.0,9.0,42,0.00,,---,0.00,VWS V14.01,2013-08-06 19:10:00,
2013-08-06 15:12:00,77.5,52.0,30.11,East,97,1.0,9.0,41,0.00,,---,0.00,VWS V14.01,2013-08-06 19:12:00,
2013-08-06 15:13:00,77.5,51.3,30.11,ESE,113,3.0,9.0,40,0.00,,---,0.00,VWS V14.01,2013-08-06 19:13:00,
2013-08-06 15:14:00,77.3,51.8,30.11,East,83,4.0,9.0,41,0.00,,---,0.00,VWS V14.01,2013-08-06 19:14:00,
2013-08-06 15:15:00,77.2,51.0,30.11,SW,224,1.0,9.0,40,0.00,,---,0.00,VWS V14.01,2013-08-06 19:15:00,
2013-08-06 15:18:00,77.3,51.1,30.11,SW,214,2.0,9.0,40,0.00,,---,0.00,VWS V14.01,2013-08-06 19:18:00,
2013-08-06 15:19:00,77.2,51.0,30.11,SW,230,2.0,9.0,40,0.00,,---,0.00,VWS V14.01,2013-08-06 19:19:00,
2013-08-06 15:20:00,77.1,51.6,30.11,SSW,208,2.0,9.0,41,0.00,,---,0.00,VWS V14.01,2013-08-06 19:20:00,
2013-08-06 15:23:00,77.2,52.4,30.10,SSW,195,5.0,9.0,42,0.00,,---,0.00,VWS V14.01,2013-08-06 19:23:00,
2013-08-06 15:24:00,77.2,52.4,30.10,ESE,110,2.0,9.0,42,0.00,,---,0.00,VWS V14.01,2013-08-06 19:24:00,
2013-08-06 15:25:00,77.2,51.7,30.11,ESE,105,3.0,9.0,41,0.00,,---,0.00,VWS V14.01,2013-08-06 19:25:00,
2013-08-06 15:26:00,77.2,51.7,30.11,South,177,3.0,9.0,41,0.00,,---,0.00,VWS V14.01,2013-08-06 19:26:00,
2013-08-06 15:29:00,77.4,51.9,30.11,SSW,193,5.0,7.0,41,0.00,,---,0.00,VWS V14.01,2013-08-06 19:29:00,
2013-08-06 15:30:00,77.4,50.5,30.11,SSE,150,6.0,7.0,39,0.00,,---,0.00,VWS V14.01,2013-08-06 19:30:00,
2013-08-06 15:31:00,77.4,51.2,30.11,SE,141,5.0,7.0,40,0.00,,---,0.00,VWS V14.01,2013-08-06 19:31:00,
2013-08-06 15:32:00,77.4,51.9,30.11,South,169,6.0,8.0,41,0.00,,---,0.00,VWS V14.01,2013-08-06 19:32:00,
2013-08-06 15:33:00,77.4,50.5,30.11,East,81,3.0,8.0,39,0.00,,---,0.00,VWS V14.01,2013-08-06 19:33:00,
2013-08-06 15:34:00,77.2,51.0,30.11,East,99,0.0,8.0,40,0.00,,---,0.00,VWS V14.01,2013-08-06 19:34:00,
2013-08-06 15:35:00,77.3,51.8,30.11,South,187,4.0,8.0,41,0.00,,---,0.00,VWS V14.01,2013-08-06 19:35:00,
2013-08-06 15:36:00,77.3,53.1,30.11,East,100,1.0,8.0,43,0.00,,---,0.00,VWS V14.01,2013-08-06 19:36:00,
2013-08-06 15:37:00,77.3,51.8,30.11,SE,140,3.0,8.0,41,0.00,,---,0.00,VWS V14.01,2013-08-06 19:37:00,
2013-08-06 15:38:00,77.4,51.9,30.11,NNW,328,1.0,8.0,41,0.00,,---,0.00,VWS V14.01,2013-08-06 19:38:00,
2013-08-06 15:39:00,77.5,52.6,30.11,SW,221,3.0,8.0,42,0.00,,---,0.00,VWS V14.01,2013-08-06 19:39:00,
2013-08-06 15:40:00,76.5,52.4,30.11,SSW,206,8.0,8.0,43,0.00,,---,0.00,VWS V14.01,2013-08-06 19:40:00,
2013-08-06 15:41:00,77.4,51.2,30.11,SW,226,4.0,8.0,40,0.00,,---,0.00,VWS V14.01,2013-08-06 19:41:00,
2013-08-06 15:42:00,76.4,54.7,30.11,South,184,5.0,8.0,47,0.00,,---,0.00,VWS V14.01,2013-08-06 19:42:00,
2013-08-06 15:43:00,77.1,50.9,30.11,South,173,2.0,8.0,40,0.00,,---,0.00,VWS V14.01,2013-08-06 19:43:00,
2013-08-06 15:44:00,77.0,50.9,30.11,SSE,153,2.0,8.0,40,0.00,,---,0.00,VWS V14.01,2013-08-06 19:44:00,
2013-08-06 15:45:00,76.5,54.2,30.11,East,100,4.0,8.0,46,0.00,,---,0.00,VWS V14.01,2013-08-06 19:45:00,
2013-08-06 15:46:00,76.5,53.6,30.11,ENE,64,1.0,8.0,45,0.00,,---,0.00,VWS V14.01,2013-08-06 19:46:00,
2013-08-06 15:47:00,77.3,51.8,30.10,SSE,167,1.0,8.0,41,0.00,,---,0.00,VWS V14.01,2013-08-06 19:47:00,
2013-08-06 15:48:00,77.4,52.5,30.10,South,172,2.0,8.0,42,0.00,,---,0.00,VWS V14.01,2013-08-06 19:48:00,
2013-08-06 15:49:00,77.4,51.9,30.11,NE,39,1.0,8.0,41,0.00,,---,0.00,VWS V14.01,2013-08-06 19:49:00,
2013-08-06 15:50:00,77.4,53.2,30.11,West,266,4.0,8.0,43,0.00,,---,0.00,VWS V14.01,2013-08-06 19:50:00,
2013-08-06 15:53:00,76.7,51.2,30.11,SSE,149,3.0,8.0,41,0.00,,---,0.00,VWS V14.01,2013-08-06 19:53:00,
2013-08-06 15:55:00,76.6,51.8,30.11,SW,229,3.0,8.0,42,0.00,,---,0.00,VWS V14.01,2013-08-06 19:55:00,
2013-08-06 15:58:00,76.7,51.9,30.11,South,179,3.0,8.0,42,0.00,,---,0.00,VWS V14.01,2013-08-06 19:58:00,
2013-08-06 16:01:00,76.3,50.2,30.11,WSW,245,3.0,8.0,40,0.00,,---,0.00,VWS V14.01,2013-08-06 20:01:00,
2013-08-06 16:03:00,76.0,51.9,30.11,SE,146,1.0,8.0,43,0.00,,---,0.00,VWS V14.01,2013-08-06 20:03:00,
2013-08-06 16:04:00,76.3,53.4,30.11,NE,37,2.0,8.0,45,0.00,,---,0.00,VWS V14.01,2013-08-06 20:04:00,
2013-08-06 16:07:00,76.6,53.7,30.11,ESE,113,4.0,8.0,45,0.00,,---,0.00,VWS V14.01,2013-08-06 20:07:00,
2013-08-06 16:08:00,76.8,53.3,30.11,SE,145,1.0,8.0,44,0.00,,---,0.00,VWS V14.01,2013-08-06 20:08:00,
2013-08-06 16:09:00,77.0,53.4,30.11,South,176,3.0,8.0,44,0.00,,---,0.00,VWS V14.01,2013-08-06 20:09:00,
2013-08-06 16:12:00,77.2,51.7,30.11,WSW,250,4.0,8.0,41,0.00,,---,0.00,VWS V14.01,2013-08-06 20:12:00,
2013-08-06 16:13:00,77.1,51.6,30.11,WSW,250,3.0,8.0,41,0.00,,---,0.00,VWS V14.01,2013-08-06 20:13:00,
2013-08-06 16:14:00,77.0,53.4,30.11,East,96,3.0,8.0,44,0.00,,---,0.00,VWS V14.01,2013-08-06 20:14:00,
2013-08-06 16:18:00,77.3,54.3,30.11,SSW,203,4.0,8.0,45,0.00,,---,0.00,VWS V14.01,2013-08-06 20:18:00,
2013-08-06 16:19:00,77.2,53.6,30.11,SSE,153,4.0,8.0,44,0.00,,---,0.00,VWS V14.01,2013-08-06 20:19:00,
2013-08-06 16:23:00,77.1,52.3,30.11,SSE,158,2.0,8.0,42,0.00,,---,0.00,VWS V14.01,2013-08-06 20:23:00,
2013-08-06 16:24:00,77.0,52.8,30.11,SSW,195,5.0,8.0,43,0.00,,---,0.00,VWS V14.01,2013-08-06 20:24:00,
2013-08-06 16:25:00,77.1,52.9,30.11,South,174,4.0,8.0,43,0.00,,---,0.00,VWS V14.01,2013-08-06 20:25:00,
2013-08-06 16:28:00,76.9,52.7,30.11,WSW,239,3.0,9.0,43,0.00,,---,0.00,VWS V14.01,2013-08-06 20:28:00,
2013-08-06 16:29:00,76.8,52.0,30.11,West,278,5.0,8.0,42,0.00,,---,0.00,VWS V14.01,2013-08-06 20:29:00,
2013-08-06 16:30:00,76.8,52.6,30.11,South,191,5.0,8.0,43,0.00,,---,0.00,VWS V14.01,2013-08-06 20:30:00,
2013-08-06 16:34:00,76.5,53.0,30.11,SE,143,4.0,8.0,44,0.00,,---,0.00,VWS V14.01,2013-08-06 20:34:00,
2013-08-06 16:35:00,76.5,52.4,30.11,SE,140,3.0,8.0,43,0.00,,---,0.00,VWS V14.01,2013-08-06 20:35:00,
2013-08-06 16:39:00,76.4,52.3,30.11,SE,139,1.0,8.0,43,0.00,,---,0.00,VWS V14.01,2013-08-06 20:39:00,
2013-08-06 16:40:00,76.4,52.3,30.11,ESE,122,4.0,8.0,43,0.00,,---,0.00,VWS V14.01,2013-08-06 20:40:00,
2013-08-06 16:41:00,76.5,54.8,30.11,West,259,2.0,8.0,47,0.00,,---,0.00,VWS V14.01,2013-08-06 20:41:00,
2013-08-06 16:45:00,76.6,53.7,30.11,ESE,106,2.0,8.0,45,0.00,,---,0.00,VWS V14.01,2013-08-06 20:45:00,
2013-08-06 16:46:00,76.6,52.5,30.11,South,184,2.0,8.0,43,0.00,,---,0.00,VWS V14.01,2013-08-06 20:46:00,
2013-08-06 16:49:00,76.1,53.2,30.11,East,86,1.0,9.0,45,0.00,,---,0.00,VWS V14.01,2013-08-06 20:49:00,
2013-08-06 16:50:00,76.1,53.8,30.11,SW,224,6.0,9.0,46,0.00,,---,0.00,VWS V14.01,2013-08-06 20:50:00,
2013-08-06 16:51:00,76.0,51.9,30.11,SW,214,4.0,9.0,43,0.00,,---,0.00,VWS V14.01,2013-08-06 20:51:00,
2013-08-06 16:54:00,76.0,52.5,30.11,SW,225,5.0,9.0,44,0.00,,---,0.00,VWS V14.01,2013-08-06 20:54:00,
2013-08-06 16:55:00,76.0,53.2,30.11,SSW,212,3.0,9.0,45,0.00,,---,0.00,VWS V14.01,2013-08-06 20:55:00,
2013-08-06 16:56:00,76.0,53.8,30.11,SW,229,8.0,9.0,46,0.00,,---,0.00,VWS V14.01,2013-08-06 20:56:00,
2013-08-06 16:57:00,76.0,51.9,30.11,SSW,198,2.0,9.0,43,0.00,,---,0.00,VWS V14.01,2013-08-06 20:57:00,
2013-08-06 16:59:00,76.3,52.8,30.11,West,279,3.0,9.0,44,0.00,,---,0.00,VWS V14.01,2013-08-06 20:59:00,
2013-08-06 17:00:00,76.4,53.5,30.11,NE,43,2.0,9.0,45,0.00,,---,0.00,VWS V14.01,2013-08-06 21:00:00,
2013-08-06 17:01:00,76.4,54.1,30.11,ESE,117,5.0,9.0,46,0.00,,---,0.00,VWS V14.01,2013-08-06 21:01:00,
2013-08-06 17:03:00,76.5,52.4,30.11,SW,214,2.0,9.0,43,0.00,,---,0.00,VWS V14.01,2013-08-06 21:03:00,
2013-08-06 17:05:00,76.7,55.5,30.11,SE,132,3.0,9.0,48,0.00,,---,0.00,VWS V14.01,2013-08-06 21:05:00,
2013-08-06 17:06:00,76.8,53.9,30.11,East,91,2.0,9.0,45,0.00,,---,0.00,VWS V14.01,2013-08-06 21:06:00,
2013-08-06 17:07:00,76.8,53.9,30.11,South,173,3.0,9.0,45,0.00,,---,0.00,VWS V14.01,2013-08-06 21:07:00,
2013-08-06 17:08:00,76.8,53.3,30.11,SSE,165,3.0,9.0,44,0.00,,---,0.00,VWS V14.01,2013-08-06 21:08:00,
2013-08-06 17:09:00,76.9,52.1,30.11,South,172,3.0,9.0,42,0.00,,---,0.00,VWS V14.01,2013-08-06 21:09:00,
2013-08-06 17:11:00,76.9,52.7,30.11,SSW,207,2.0,9.0,43,0.00,,---,0.00,VWS V14.01,2013-08-06 21:11:00,
2013-08-06 17:12:00,76.9,53.3,30.11,ESE,122,2.0,9.0,44,0.00,,---,0.00,VWS V14.01,2013-08-06 21:12:00,
2013-08-06 17:14:00,77.1,53.5,30.10,NE,54,3.0,9.0,44,0.00,,---,0.00,VWS V14.01,2013-08-06 21:14:00,
2013-08-06 17:16:00,77.2,52.4,30.10,West,276,5.0,9.0,42,0.00,,---,0.00,VWS V14.01,2013-08-06 21:16:00,
2013-08-06 17:17:00,77.2,52.4,30.10,SSE,166,1.0,9.0,42,0.00,,---,0.00,VWS V14.01,2013-08-06 21:17:00,
2013-08-06 17:20:00,77.2,50.3,30.10,West,266,3.0,9.0,39,0.00,,---,0.00,VWS V14.01,2013-08-06 21:20:00,
2013-08-06 17:22:00,77.2,52.4,30.10,SW,219,1.0,9.0,42,0.00,,---,0.00,VWS V14.01,2013-08-06 21:22:00,
2013-08-06 17:23:00,77.2,52.4,30.11,South,186,2.0,9.0,42,0.00,,---,0.00,VWS V14.01,2013-08-06 21:23:00,
2013-08-06 17:25:00,77.2,51.7,30.11,ESE,120,3.0,9.0,41,0.00,,---,0.00,VWS V14.01,2013-08-06 21:25:00,
2013-08-06 17:27:00,76.9,50.1,30.10,SW,222,3.0,9.0,39,0.00,,---,0.00,VWS V14.01,2013-08-06 21:27:00,
2013-08-06 17:28:00,76.7,50.6,30.10,SW,217,4.0,9.0,40,0.00,,---,0.00,VWS V14.01,2013-08-06 21:28:00,
2013-08-06 17:30:00,76.4,50.3,30.10,ESE,120,3.0,5.0,40,0.00,,---,0.00,VWS V14.01,2013-08-06 21:30:00,
2013-08-06 17:31:00,76.3,50.9,30.10,SW,228,2.0,5.0,41,0.00,,---,0.00,VWS V14.01,2013-08-06 21:31:00,
2013-08-06 17:33:00,76.1,50.0,30.10,SSE,156,0.0,5.0,40,0.00,,---,0.00,VWS V14.01,2013-08-06 21:33:00,
2013-08-06 17:34:00,76.2,50.1,30.10,South,176,0.0,5.0,40,0.00,,---,0.00,VWS V14.01,2013-08-06 21:34:00,
2013-08-06 17:36:00,76.3,50.9,30.10,SE,141,2.0,5.0,41,0.00,,---,0.00,VWS V14.01,2013-08-06 21:36:00,
2013-08-06 17:39:00,76.5,51.1,30.10,SE,142,4.0,7.0,41,0.00,,---,0.00,VWS V14.01,2013-08-06 21:39:00,
2013-08-06 17:41:00,76.5,51.7,30.10,East,82,2.0,7.0,42,0.00,,---,0.00,VWS V14.01,2013-08-06 21:41:00,
2013-08-06 17:42:00,76.6,51.8,30.10,ENE,72,3.0,7.0,42,0.00,,---,0.00,VWS V14.01,2013-08-06 21:42:00,
2013-08-06 17:45:00,76.6,51.2,30.10,ESE,122,5.0,7.0,41,0.00,,---,0.00,VWS V14.01,2013-08-06 21:45:00,
2013-08-06 17:46:00,76.6,50.5,30.10,SSW,193,2.0,7.0,40,0.00,,---,0.00,VWS V14.01,2013-08-06 21:46:00,
2013-08-06 17:47:00,76.7,51.2,30.10,SSE,157,4.0,7.0,41,0.00,,---,0.00,VWS V14.01,2013-08-06 21:47:00,
2013-08-06 17:49:00,77.0,53.4,30.10,SW,222,2.0,7.0,44,0.00,,---,0.00,VWS V14.01,2013-08-06 21:49:00,
2013-08-06 17:50:00,77.1,51.6,30.10,SW,218,0.0,7.0,41,0.00,,---,0.00,VWS V14.01,2013-08-06 21:50:00,
2013-08-06 17:51:00,77.1,52.3,30.10,East,82,1.0,7.0,42,0.00,,---,0.00,VWS V14.01,2013-08-06 21:51:00,
2013-08-06 17:52:00,77.2,52.4,30.10,SW,230,1.0,7.0,42,0.00,,---,0.00,VWS V14.01,2013-08-06 21:52:00,
2013-08-06 17:53:00,77.3,52.5,30.10,NE,55,0.0,7.0,42,0.00,,---,0.00,VWS V14.01,2013-08-06 21:53:00,
2013-08-06 17:54:00,77.2,51.7,30.11,ESE,122,1.0,7.0,41,0.00,,---,0.00,VWS V14.01,2013-08-06 21:54:00,
2013-08-06 17:56:00,77.1,52.3,30.10,SW,214,2.0,7.0,42,0.00,,---,0.00,VWS V14.01,2013-08-06 21:56:00,
2013-08-06 17:57:00,76.9,52.7,30.10,NE,52,2.0,7.0,43,0.00,,---,0.00,VWS V14.01,2013-08-06 21:57:00,
2013-08-06 17:58:00,76.7,52.5,30.11,ESE,122,1.0,1.0,43,0.00,,---,0.00,VWS V14.01,2013-08-06 21:58:00,
2013-08-06 18:00:00,76.5,53.6,30.10,East,94,1.0,4.0,45,0.00,,---,0.00,VWS V14.01,2013-08-06 22:00:00,
2013-08-06 18:01:00,76.3,52.8,30.11,SE,129,4.0,4.0,44,0.00,,---,0.00,VWS V14.01,2013-08-06 22:01:00,
2013-08-06 18:03:00,76.1,53.8,30.11,ESE,108,5.0,5.0,46,0.00,,---,0.00,VWS V14.01,2013-08-06 22:03:00,
2013-08-06 18:04:00,76.1,53.8,30.11,SE,139,3.0,5.0,46,0.00,,---,0.00,VWS V14.01,2013-08-06 22:04:00,
2013-08-06 18:05:00,75.9,54.2,30.11,NE,53,2.0,7.0,47,0.00,,---,0.00,VWS V14.01,2013-08-06 22:05:00,
2013-08-06 18:08:00,75.6,53.4,30.10,East,89,3.0,7.0,46,0.00,,---,0.00,VWS V14.01,2013-08-06 22:08:00,
2013-08-06 18:11:00,75.7,54.1,30.11,South,169,2.0,7.0,47,0.00,,---,0.00,VWS V14.01,2013-08-06 22:11:00,
2013-08-06 18:13:00,76.0,55.5,30.11,WSW,240,2.0,7.0,49,0.00,,---,0.00,VWS V14.01,2013-08-06 22:13:00,
2013-08-06 18:16:00,76.0,54.9,30.11,SW,214,2.0,7.0,48,0.00,,---,0.00,VWS V14.01,2013-08-06 22:16:00,
2013-08-06 18:17:00,75.9,54.8,30.11,SSE,157,1.0,7.0,48,0.00,,---,0.00,VWS V14.01,2013-08-06 22:17:00,
2013-08-06 18:18:00,76.1,53.8,30.11,SSE,158,1.0,7.0,46,0.00,,---,0.00,VWS V14.01,2013-08-06 22:18:00,
2013-08-06 18:19:00,76.1,53.8,30.11,WSW,242,1.0,7.0,46,0.00,,---,0.00,VWS V14.01,2013-08-06 22:19:00,
2013-08-06 18:21:00,76.2,55.7,30.11,SSE,149,1.0,7.0,49,0.00,,---,0.00,VWS V14.01,2013-08-06 22:21:00,
2013-08-06 18:22:00,76.3,55.8,30.11,ESE,106,3.0,7.0,49,0.00,,---,0.00,VWS V14.01,2013-08-06 22:22:00,
2013-08-06 18:23:00,76.4,56.4,30.11,SE,125,6.0,7.0,50,0.00,,---,0.00,VWS V14.01,2013-08-06 22:23:00,
2013-08-06 18:24:00,76.1,54.4,30.11,SSE,158,6.0,9.0,47,0.00,,---,0.00,VWS V14.01,2013-08-06 22:24:00,
2013-08-06 18:26:00,75.5,55.6,30.11,ESE,110,6.0,9.0,50,0.00,,---,0.00,VWS V14.01,2013-08-06 22:26:00,
2013-08-06 18:28:00,75.1,55.8,30.11,ESE,123,5.0,9.0,51,0.00,,---,0.00,VWS V14.01,2013-08-06 22:28:00,
2013-08-06 18:29:00,74.9,56.1,30.11,ESE,115,8.0,9.0,52,0.00,,---,0.00,VWS V14.01,2013-08-06 22:29:00,
2013-08-06 18:32:00,74.6,57.9,30.11,ESE,118,7.0,9.0,56,0.00,,---,0.00,VWS V14.01,2013-08-06 22:32:00,
2013-08-06 18:33:00,74.6,57.9,30.11,SE,125,6.0,9.0,56,0.00,,---,0.00,VWS V14.01,2013-08-06 22:33:00,
2013-08-06 18:34:00,74.5,57.3,30.11,SE,124,7.0,9.0,55,0.00,,---,0.00,VWS V14.01,2013-08-06 22:34:00,
2013-08-06 18:36:00,74.4,57.2,30.11,SE,128,10.0,11.0,55,0.00,,---,0.00,VWS V14.01,2013-08-06 22:36:00,
2013-08-06 18:38:00,74.1,55.9,30.11,SSE,160,8.0,13.0,53,0.00,,---,0.00,VWS V14.01,2013-08-06 22:38:00,
2013-08-06 18:39:00,74.0,57.8,30.11,ESE,103,12.0,13.0,57,0.00,,---,0.00,VWS V14.01,2013-08-06 22:39:00,
2013-08-06 18:40:00,74.0,56.3,30.11,SE,137,11.0,14.0,54,0.00,,---,0.00,VWS V14.01,2013-08-06 22:40:00,
2013-08-06 18:41:00,73.9,55.2,30.11,SE,129,7.0,14.0,52,0.00,,---,0.00,VWS V14.01,2013-08-06 22:41:00,
2013-08-06 18:43:00,73.8,55.1,30.11,SE,143,11.0,14.0,52,0.00,,---,0.00,VWS V14.01,2013-08-06 22:43:00,
2013-08-06 18:44:00,73.8,55.1,30.11,SE,137,10.0,14.0,52,0.00,,---,0.00,VWS V14.01,2013-08-06 22:44:00,
2013-08-06 18:46:00,73.8,55.1,30.11,SE,128,10.0,14.0,52,0.00,,---,0.00,VWS V14.01,2013-08-06 22:46:00,
2013-08-06 18:48:00,73.7,56.5,30.11,SE,134,10.0,14.0,55,0.00,,---,0.00,VWS V14.01,2013-08-06 22:48:00,
2013-08-06 18:50:00,73.6,56.5,30.11,ESE,119,9.0,14.0,55,0.00,,---,0.00,VWS V14.01,2013-08-06 22:50:00,
2013-08-06 18:51:00,73.6,57.9,30.11,ESE,113,10.0,14.0,58,0.00,,---,0.00,VWS V14.01,2013-08-06 22:51:00,
2013-08-06 18:52:00,73.6,57.4,30.11,ESE,121,7.0,14.0,57,0.00,,---,0.00,VWS V14.01,2013-08-06 22:52:00,
2013-08-06 18:54:00,73.5,57.3,30.12,SE,140,8.0,14.0,57,0.00,,---,0.00,VWS V14.01,2013-08-06 22:54:00,
2013-08-06 18:55:00,73.5,56.4,30.11,SE,130,9.0,14.0,55,0.00,,---,0.00,VWS V14.01,2013-08-06 22:55:00,
2013-08-06 18:56:00,73.4,56.8,30.11,East,93,8.0,14.0,56,0.00,,---,0.00,VWS V14.01,2013-08-06 22:56:00,
2013-08-06 18:57:00,73.2,56.1,30.11,ESE,110,8.0,14.0,55,0.00,,---,0.00,VWS V14.01,2013-08-06 22:57:00,
2013-08-06 18:58:00,73.2,55.6,30.11,East,100,10.0,14.0,54,0.00,,---,0.00,VWS V14.01,2013-08-06 22:58:00,
2013-08-06 18:59:00,73.1,56.5,30.11,ESE,106,11.0,11.0,56,0.00,,---,0.00,VWS V14.01,2013-08-06 22:59:00,
2013-08-06 19:00:00,73.0,55.4,30.11,SE,131,6.0,11.0,54,0.00,,---,0.00,VWS V14.01,2013-08-06 23:00:00,
2013-08-06 19:02:00,73.0,56.9,30.11,ESE,112,6.0,11.0,57,0.00,,---,0.00,VWS V14.01,2013-08-06 23:02:00,
2013-08-06 19:04:00,73.0,55.9,30.11,ESE,111,7.0,12.0,55,0.00,,---,0.00,VWS V14.01,2013-08-06 23:04:00,
2013-08-06 19:05:00,72.9,57.8,30.11,SE,131,10.0,12.0,59,0.00,,---,0.00,VWS V14.01,2013-08-06 23:05:00,
2013-08-06 19:06:00,72.9,56.8,30.12,ESE,115,10.0,12.0,57,0.00,,---,0.00,VWS V14.01,2013-08-06 23:06:00,
2013-08-06 19:07:00,72.8,57.2,30.11,ESE,113,9.0,12.0,58,0.00,,---,0.00,VWS V14.01,2013-08-06 23:07:00,
2013-08-06 19:10:00,72.7,57.6,30.11,ESE,115,9.0,12.0,59,0.00,,---,0.00,VWS V14.01,2013-08-06 23:10:00,
2013-08-06 19:11:00,72.7,57.1,30.11,SE,136,7.0,12.0,58,0.00,,---,0.00,VWS V14.01,2013-08-06 23:11:00,
2013-08-06 19:12:00,72.6,57.5,30.11,ESE,117,8.0,12.0,59,0.00,,---,0.00,VWS V14.01,2013-08-06 23:12:00,
2013-08-06 19:13:00,72.6,57.5,30.11,SE,128,10.0,12.0,59,0.00,,---,0.00,VWS V14.01,2013-08-06 23:13:00,
2013-08-06 19:17:00,72.4,56.3,30.12,SE,125,6.0,12.0,57,0.00,,---,0.00,VWS V14.01,2013-08-06 23:17:00,
2013-08-06 19:18:00,72.4,56.3,30.12,ESE,113,9.0,12.0,57,0.00,,---,0.00,VWS V14.01,2013-08-06 23:18:00,
2013-08-06 19:22:00,72.2,56.6,30.12,ESE,121,10.0,12.0,58,0.00,,---,0.00,VWS V14.01,2013-08-06 23:22:00,
2013-08-06 19:23:00,72.2,56.1,30.12,ESE,115,9.0,12.0,57,0.00,,---,0.00,VWS V14.01,2013-08-06 23:23:00,
2013-08-06 19:24:00,72.1,57.5,30.12,SSE,156,8.0,12.0,60,0.00,,---,0.00,VWS V14.01,2013-08-06 23:24:00,
2013-08-06 19:25:00,72.1,57.9,30.12,South,172,5.0,12.0,61,0.00,,---,0.00,VWS V14.01,2013-08-06 23:25:00,
2013-08-06 19:27:00,72.0,57.4,30.12,ESE,113,13.0,13.0,60,0.00,,---,0.00,VWS V14.01,2013-08-06 23:27:00,
2013-08-06 19:29:00,71.9,58.2,30.12,SE,125,9.0,10.0,62,0.00,,---,0.00,VWS V14.01,2013-08-06 23:29:00,
2013-08-06 19:30:00,71.9,58.2,30.12,ENE,70,2.0,10.0,62,0.00,,---,0.00,VWS V14.01,2013-08-06 23:30:00,
2013-08-06 19:32:00,71.8,57.6,30.12,ESE,118,8.0,12.0,61,0.00,,---,0.00,VWS V14.01,2013-08-06 23:32:00,
2013-08-06 19:34:00,71.8,59.0,30.12,ESE,105,7.0,12.0,64,0.00,,---,0.00,VWS V14.01,2013-08-06 23:34:00,
2013-08-06 19:35:00,71.8,57.2,30.12,SE,124,10.0,12.0,60,0.00,,---,0.00,VWS V14.01,2013-08-06 23:35:00,
2013-08-06 19:37:00,71.6,57.9,30.12,SE,143,7.0,12.0,62,0.00,,---,0.00,VWS V14.01,2013-08-06 23:37:00,
2013-08-06 19:39:00,71.6,59.7,30.12,SE,131,9.0,12.0,66,0.00,,---,0.00,VWS V14.01,2013-08-06 23:39:00,
2013-08-06 19:40:00,71.5,56.9,30.12,SE,125,10.0,12.0,60,0.00,,---,0.00,VWS V14.01,2013-08-06 23:40:00,
2013-08-06 19:41:00,71.4,58.2,30.12,SE,131,9.0,12.0,63,0.00,,---,0.00,VWS V14.01,2013-08-06 23:41:00,
2013-08-06 19:43:00,71.4,58.2,30.12,ESE,107,10.0,12.0,63,0.00,,---,0.00,VWS V14.01,2013-08-06 23:43:00,
2013-08-06 19:44:00,71.3,57.2,30.12,SSE,157,6.0,12.0,61,0.00,,---,0.00,VWS V14.01,2013-08-06 23:44:00,
2013-08-06 19:45:00,71.2,58.0,30.12,WSW,248,8.0,12.0,63,0.00,,---,0.00,VWS V14.01,2013-08-06 23:45:00,
2013-08-06 19:46:00,71.2,57.1,30.12,SE,135,5.0,12.0,61,0.00,,---,0.00,VWS V14.01,2013-08-06 23:46:00,
2013-08-06 19:47:00,71.2,57.5,30.12,ESE,120,8.0,12.0,62,0.00,,---,0.00,VWS V14.01,2013-08-06 23:47:00,
2013-08-06 19:49:00,71.1,57.9,30.12,SSE,159,8.0,12.0,63,0.00,,---,0.00,VWS V14.01,2013-08-06 23:49:00,
2013-08-06 19:50:00,71.1,56.5,30.12,SE,132,7.0,12.0,60,0.00,,---,0.00,VWS V14.01,2013-08-06 23:50:00,
2013-08-06 19:51:00,71.1,58.3,30.12,SSE,153,8.0,12.0,64,0.00,,---,0.00,VWS V14.01,2013-08-06 23:51:00,
2013-08-06 19:52:00,71.1,57.0,30.12,SE,129,6.0,12.0,61,0.00,,---,0.00,VWS V14.01,2013-08-06 23:52:00,
2013-08-06 19:55:00,70.9,56.8,30.12,SE,131,9.0,12.0,61,0.00,,---,0.00,VWS V14.01,2013-08-06 23:55:00,
2013-08-06 19:56:00,70.9,57.2,30.13,ENE,74,4.0,12.0,62,0.00,,---,0.00,VWS V14.01,2013-08-06 23:56:00,
2013-08-06 19:57:00,70.9,58.1,30.13,NE,56,4.0,12.0,64,0.00,,---,0.00,VWS V14.01,2013-08-06 23:57:00,
2013-08-06 19:58:00,70.8,56.2,30.12,ESE,123,7.0,8.0,60,0.00,,---,0.00,VWS V14.01,2013-08-06 23:58:00,
2013-08-06 20:01:00,70.7,57.5,30.12,ESE,123,7.0,8.0,63,0.00,,---,0.00,VWS V14.01,2013-08-07 00:01:00,
2013-08-06 20:02:00,70.7,57.1,30.12,SE,129,4.0,8.0,62,0.00,,---,0.00,VWS V14.01,2013-08-07 00:02:00,
2013-08-06 20:03:00,70.6,56.5,30.12,SSE,150,7.0,9.0,61,0.00,,---,0.00,VWS V14.01,2013-08-07 00:03:00,
2013-08-06 20:07:00,70.3,56.7,30.13,SE,134,7.0,11.0,62,0.00,,---,0.00,VWS V14.01,2013-08-07 00:07:00,
2013-08-06 20:09:00,70.2,58.3,30.13,SSE,148,6.0,11.0,66,0.00,,---,0.00,VWS V14.01,2013-08-07 00:09:00,
2013-08-06 20:14:00,69.9,56.8,30.12,ESE,123,7.0,11.0,63,0.00,,---,0.00,VWS V14.01,2013-08-07 00:14:00,
2013-08-06 20:15:00,69.8,56.2,30.12,SE,140,7.0,11.0,62,0.00,,---,0.00,VWS V14.01,2013-08-07 00:15:00,
2013-08-06 20:19:00,69.6,56.0,30.13,SE,142,6.0,11.0,62,0.00,,---,0.00,VWS V14.01,2013-08-07 00:19:00,
2013-08-06 20:20:00,69.6,56.9,30.13,SE,132,7.0,11.0,64,0.00,,---,0.00,VWS V14.01,2013-08-07 00:20:00,
2013-08-06 20:21:00,69.6,56.9,30.12,SE,146,7.0,11.0,64,0.00,,---,0.00,VWS V14.01,2013-08-07 00:21:00,
2013-08-06 20:25:00,69.4,57.6,30.12,SSE,156,5.0,11.0,66,0.00,,---,0.00,VWS V14.01,2013-08-07 00:25:00,
2013-08-06 20:26:00,69.4,57.1,30.12,East,91,3.0,11.0,65,0.00,,---,0.00,VWS V14.01,2013-08-07 00:26:00,
2013-08-06 20:27:00,69.4,56.7,30.13,SE,141,4.0,11.0,64,0.00,,---,0.00,VWS V14.01,2013-08-07 00:27:00,
2013-08-06 20:30:00,69.4,56.7,30.13,SSE,159,2.0,6.0,64,0.00,,---,0.00,VWS V14.01,2013-08-07 00:30:00,
2013-08-06 20:31:00,69.3,56.6,30.13,SW,226,8.0,8.0,64,0.00,,---,0.00,VWS V14.01,2013-08-07 00:31:00,
2013-08-06 20:32:00,69.3,56.6,30.13,ESE,121,6.0,8.0,64,0.00,,---,0.00,VWS V14.01,2013-08-07 00:32:00,
2013-08-06 20:33:00,69.3,56.6,30.13,SSW,208,2.0,8.0,64,0.00,,---,0.00,VWS V14.01,2013-08-07 00:33:00,
2013-08-06 20:34:00,69.2,57.0,30.13,SE,124,5.0,8.0,65,0.00,,---,0.00,VWS V14.01,2013-08-07 00:34:00,
2013-08-06 20:35:00,69.1,55.5,30.13,South,184,2.0,8.0,62,0.00,,---,0.00,VWS V14.01,2013-08-07 00:35:00,
2013-08-06 20:37:00,69.1,56.0,30.13,SE,146,5.0,8.0,63,0.00,,---,0.00,VWS V14.01,2013-08-07 00:37:00,
2013-08-06 20:38:00,69.0,55.9,30.13,ESE,110,4.0,8.0,63,0.00,,---,0.00,VWS V14.01,2013-08-07 00:38:00,
2013-08-06 20:39:00,69.0,56.8,30.13,SE,127,6.0,8.0,65,0.00,,---,0.00,VWS V14.01,2013-08-07 00:39:00,
2013-08-06 20:40:00,68.9,56.7,30.14,SSE,159,4.0,8.0,65,0.00,,---,0.00,VWS V14.01,2013-08-07 00:40:00,
2013-08-06 20:42:00,68.9,56.7,30.14,ESE,113,4.0,8.0,65,0.00,,---,0.00,VWS V14.01,2013-08-07 00:42:00,
2013-08-06 20:43:00,68.9,56.7,30.14,SE,131,3.0,8.0,65,0.00,,---,0.00,VWS V14.01,2013-08-07 00:43:00,
2013-08-06 20:45:00,68.9,56.7,30.14,SE,145,4.0,8.0,65,0.00,,---,0.00,VWS V14.01,2013-08-07 00:45:00,
2013-08-06 20:46:00,68.9,56.7,30.14,ESE,122,5.0,8.0,65,0.00,,---,0.00,VWS V14.01,2013-08-07 00:46:00,
2013-08-06 20:47:00,68.8,57.4,30.13,ESE,109,5.0,8.0,67,0.00,,---,0.00,VWS V14.01,2013-08-07 00:47:00,
2013-08-06 20:48:00,68.8,57.0,30.14,East,88,6.0,8.0,66,0.00,,---,0.00,VWS V14.01,2013-08-07 00:48:00,
2013-08-06 20:50:00,68.8,55.7,30.14,SE,136,6.0,8.0,63,0.00,,---,0.00,VWS V14.01,2013-08-07 00:50:00,
2013-08-06 20:52:00,68.7,56.0,30.14,SE,125,3.0,8.0,64,0.00,,---,0.00,VWS V14.01,2013-08-07 00:52:00,
2013-08-06 20:54:00,68.6,55.1,30.14,ESE,123,4.0,8.0,62,0.00,,---,0.00,VWS V14.01,2013-08-07 00:54:00,
2013-08-06 20:55:00,68.6,56.0,30.14,SE,134,3.0,8.0,64,0.00,,---,0.00,VWS V14.01,2013-08-07 00:55:00,
2013-08-06 20:57:00,68.6,56.4,30.14,East,91,3.0,8.0,65,0.00,,---,0.00,VWS V14.01,2013-08-07 00:57:00,
2013-08-06 20:58:00,68.5,56.3,30.14,SE,142,7.0,8.0,65,0.00,,---,0.00,VWS V14.01,2013-08-07 00:58:00,
2013-08-06 21:01:00,68.6,57.6,30.14,SE,141,7.0,8.0,68,0.00,,---,0.00,VWS V14.01,2013-08-07 01:01:00,
2013-08-06 21:03:00,68.5,54.5,30.14,ESE,113,4.0,8.0,61,0.00,,---,0.00,VWS V14.01,2013-08-07 01:03:00,
2013-08-06 21:06:00,68.4,55.8,30.14,SW,214,5.0,8.0,64,0.00,,---,0.00,VWS V14.01,2013-08-07 01:06:00,
2013-08-06 21:07:00,68.3,55.2,30.14,ESE,118,7.0,8.0,63,0.00,,---,0.00,VWS V14.01,2013-08-07 01:07:00,
2013-08-06 21:08:00,68.3,55.2,30.14,ESE,117,8.0,8.0,63,0.00,,---,0.00,VWS V14.01,2013-08-07 01:08:00,
2013-08-06 21:10:00,68.3,56.1,30.14,SE,141,6.0,8.0,65,0.00,,---,0.00,VWS V14.01,2013-08-07 01:10:00,
2013-08-06 21:12:00,68.2,55.6,30.14,SSE,148,6.0,8.0,64,0.00,,---,0.00,VWS V14.01,2013-08-07 01:12:00,
2013-08-06 21:13:00,68.2,55.1,30.14,SE,131,7.0,8.0,63,0.00,,---,0.00,VWS V14.01,2013-08-07 01:13:00,
2013-08-06 21:14:00,68.2,54.7,30.14,South,186,7.0,9.0,62,0.00,,---,0.00,VWS V14.01,2013-08-07 01:14:00,
2013-08-06 21:16:00,68.1,54.6,30.14,SSE,154,6.0,10.0,62,0.00,,---,0.00,VWS V14.01,2013-08-07 01:16:00,
2013-08-06 21:17:00,68.0,55.0,30.14,South,169,4.0,10.0,63,0.00,,---,0.00,VWS V14.01,2013-08-07 01:17:00,
2013-08-06 21:18:00,68.0,54.1,30.13,South,184,5.0,10.0,61,0.00,,---,0.00,VWS V14.01,2013-08-07 01:18:00,
2013-08-06 21:19:00,67.9,54.0,30.14,SSE,153,4.0,10.0,61,0.00,,---,0.00,VWS V14.01,2013-08-07 01:19:00,
2013-08-06 21:20:00,67.9,54.8,30.14,East,91,7.0,10.0,63,0.00,,---,0.00,VWS V14.01,2013-08-07 01:20:00,
2013-08-06 21:21:00,67.9,56.1,30.14,SE,135,4.0,10.0,66,0.00,,---,0.00,VWS V14.01,2013-08-07 01:21:00,
2013-08-06 21:23:00,67.8,53.9,30.14,SSE,163,8.0,10.0,61,0.00,,---,0.00,VWS V14.01,2013-08-07 01:23:00,
2013-08-06 21:24:00,67.8,54.8,30.14,SSW,211,3.0,10.0,63,0.00,,---,0.00,VWS V14.01,2013-08-07 01:24:00,
2013-08-06 21:25:00,67.7,53.8,30.14,ESE,103,3.0,10.0,61,0.00,,---,0.00,VWS V14.01,2013-08-07 01:25:00,
2013-08-06 21:27:00,67.7,55.5,30.14,WSW,245,4.0,10.0,65,0.00,,---,0.00,VWS V14.01,2013-08-07 01:27:00,
2013-08-06 21:29:00,67.5,54.9,30.14,WSW,249,3.0,4.0,64,0.00,,---,0.00,VWS V14.01,2013-08-07 01:29:00,
2013-08-06 21:30:00,67.3,55.6,30.14,West,267,3.0,4.0,66,0.00,,---,0.00,VWS V14.01,2013-08-07 01:30:00,
2013-08-06 21:31:00,67.2,54.2,30.14,West,262,2.0,4.0,63,0.00,,---,0.00,VWS V14.01,2013-08-07 01:31:00,
2013-08-06 21:34:00,67.0,53.6,30.14,SW,235,4.0,5.0,62,0.00,,---,0.00,VWS V14.01,2013-08-07 01:34:00,
2013-08-06 21:35:00,66.9,53.5,30.14,WSW,245,3.0,5.0,62,0.00,,---,0.00,VWS V14.01,2013-08-07 01:35:00,
2013-08-06 21:37:00,66.8,53.8,30.14,WSW,250,5.0,6.0,63,0.00,,---,0.00,VWS V14.01,2013-08-07 01:37:00,
2013-08-06 21:39:00,66.8,53.8,30.14,SW,235,3.0,6.0,63,0.00,,---,0.00,VWS V14.01,2013-08-07 01:39:00,
2013-08-06 21:40:00,66.8,53.8,30.14,SW,218,2.0,6.0,63,0.00,,---,0.00,VWS V14.01,2013-08-07 01:40:00,
2013-08-06 21:42:00,66.7,53.7,30.13,SSW,201,4.0,6.0,63,0.00,,---,0.00,VWS V14.01,2013-08-07 01:42:00,
2013-08-06 21:45:00,66.7,54.2,30.13,SSE,165,3.0,6.0,64,0.00,,---,0.00,VWS V14.01,2013-08-07 01:45:00,
2013-08-06 21:46:00,66.7,54.6,30.14,SW,229,6.0,6.0,65,0.00,,---,0.00,VWS V14.01,2013-08-07 01:46:00,
2013-08-06 21:47:00,66.8,53.8,30.14,East,101,3.0,6.0,63,0.00,,---,0.00,VWS V14.01,2013-08-07 01:47:00,
2013-08-06 21:48:00,66.8,53.8,30.14,ESE,103,2.0,6.0,63,0.00,,---,0.00,VWS V14.01,2013-08-07 01:48:00,
2013-08-06 21:51:00,66.9,54.8,30.14,SW,231,1.0,6.0,65,0.00,,---,0.00,VWS V14.01,2013-08-07 01:51:00,
2013-08-06 21:52:00,66.9,55.6,30.14,South,180,5.0,6.0,67,0.00,,---,0.00,VWS V14.01,2013-08-07 01:52:00,
2013-08-06 21:53:00,66.9,54.8,30.14,SE,140,3.0,6.0,65,0.00,,---,0.00,VWS V14.01,2013-08-07 01:53:00,
2013-08-06 21:54:00,66.8,55.1,30.14,SSE,163,4.0,6.0,66,0.00,,---,0.00,VWS V14.01,2013-08-07 01:54:00,
2013-08-06 21:56:00,66.7,55.0,30.14,SSE,149,2.0,6.0,66,0.00,,---,0.00,VWS V14.01,2013-08-07 01:56:00,
2013-08-06 21:57:00,66.6,54.1,30.14,South,183,3.0,6.0,64,0.00,,---,0.00,VWS V14.01,2013-08-07 01:57:00,
2013-08-06 21:59:00,66.6,53.6,30.14,WSW,238,3.0,4.0,63,0.00,,---,0.00,VWS V14.01,2013-08-07 01:59:00,
2013-08-06 22:01:00,66.7,52.4,30.14,SSE,152,6.0,6.0,60,0.00,,---,0.00,VWS V14.01,2013-08-07 02:01:00,
2013-08-06 22:03:00,66.8,53.8,30.14,NE,46,3.0,6.0,63,0.00,,---,0.00,VWS V14.01,2013-08-07 02:03:00,
2013-08-06 22:05:00,66.8,52.5,30.14,South,176,4.0,6.0,60,0.00,,---,0.00,VWS V14.01,2013-08-07 02:05:00,
2013-08-06 22:07:00,66.7,54.2,30.14,SE,125,3.0,7.0,64,0.00,,---,0.00,VWS V14.01,2013-08-07 02:07:00,
2013-08-06 22:10:00,66.7,53.3,30.14,SE,124,2.0,7.0,62,0.00,,---,0.00,VWS V14.01,2013-08-07 02:10:00,
2013-08-06 22:11:00,66.6,54.9,30.14,SSW,210,1.0,7.0,66,0.00,,---,0.00,VWS V14.01,2013-08-07 02:11:00,
2013-08-06 22:12:00,66.6,54.5,30.14,SW,230,1.0,7.0,65,0.00,,---,0.00,VWS V14.01,2013-08-07 02:12:00,
2013-08-06 22:13:00,66.5,54.4,30.14,SSE,166,2.0,7.0,65,0.00,,---,0.00,VWS V14.01,2013-08-07 02:13:00,
2013-08-06 22:16:00,66.3,55.0,30.14,South,184,4.0,7.0,67,0.00,,---,0.00,VWS V14.01,2013-08-07 02:16:00,
2013-08-06 22:18:00,66.2,54.1,30.14,WSW,250,0.0,7.0,65,0.00,,---,0.00,VWS V14.01,2013-08-07 02:18:00,
2013-08-06 22:21:00,65.8,54.5,30.14,SE,125,3.0,7.0,67,0.00,,---,0.00,VWS V14.01,2013-08-07 02:21:00,
2013-08-06 22:22:00,65.8,54.5,30.14,SSW,201,3.0,7.0,67,0.00,,---,0.00,VWS V14.01,2013-08-07 02:22:00,
2013-08-06 22:23:00,65.8,54.1,30.14,South,191,2.0,7.0,66,0.00,,---,0.00,VWS V14.01,2013-08-07 02:23:00,
2013-08-06 22:24:00,65.8,53.7,30.14,SSE,153,6.0,7.0,65,0.00,,---,0.00,VWS V14.01,2013-08-07 02:24:00,
2013-08-06 22:26:00,65.8,55.0,30.14,ENE,70,3.0,7.0,68,0.00,,---,0.00,VWS V14.01,2013-08-07 02:26:00,
2013-08-06 22:27:00,65.8,54.1,30.14,East,91,3.0,7.0,66,0.00,,---,0.00,VWS V14.01,2013-08-07 02:27:00,
2013-08-06 22:29:00,65.9,55.0,30.14,SSE,149,6.0,7.0,68,0.00,,---,0.00,VWS V14.01,2013-08-07 02:29:00,
2013-08-06 22:30:00,65.9,54.7,30.14,ESE,117,5.0,7.0,67,0.00,,---,0.00,VWS V14.01,2013-08-07 02:30:00,
2013-08-06 22:31:00,66.0,54.7,30.14,ENE,71,3.0,7.0,67,0.00,,---,0.00,VWS V14.01,2013-08-07 02:31:00,
2013-08-06 22:32:00,66.0,54.3,30.14,ESE,121,3.0,7.0,66,0.00,,---,0.00,VWS V14.01,2013-08-07 02:32:00,
2013-08-06 22:34:00,66.0,54.3,30.14,South,191,4.0,7.0,66,0.00,,---,0.00,VWS V14.01,2013-08-07 02:34:00,
2013-08-06 22:35:00,66.0,54.3,30.14,West,266,4.0,7.0,66,0.00,,---,0.00,VWS V14.01,2013-08-07 02:35:00,
2013-08-06 22:36:00,66.0,53.9,30.14,East,99,6.0,7.0,65,0.00,,---,0.00,VWS V14.01,2013-08-07 02:36:00,
2013-08-06 22:38:00,65.9,53.8,30.14,ESE,113,2.0,7.0,65,0.00,,---,0.00,VWS V14.01,2013-08-07 02:38:00,
2013-08-06 22:39:00,65.8,54.1,30.14,SE,143,7.0,7.0,66,0.00,,---,0.00,VWS V14.01,2013-08-07 02:39:00,
2013-08-06 22:40:00,65.8,53.3,30.14,SSE,160,5.0,7.0,64,0.00,,---,0.00,VWS V14.01,2013-08-07 02:40:00,
2013-08-06 22:42:00,65.8,54.5,30.14,ESE,118,6.0,7.0,67,0.00,,---,0.00,VWS V14.01,2013-08-07 02:42:00,
2013-08-06 22:44:00,65.9,53.4,30.14,SSE,157,5.0,8.0,64,0.00,,---,0.00,VWS V14.01,2013-08-07 02:44:00,
2013-08-06 22:45:00,65.9,53.4,30.14,SE,132,6.0,8.0,64,0.00,,---,0.00,VWS V14.01,2013-08-07 02:45:00,
2013-08-06 22:46:00,65.8,52.4,30.14,ESE,115,6.0,8.0,62,0.00,,---,0.00,VWS V14.01,2013-08-07 02:46:00,
2013-08-06 22:47:00,65.9,53.8,30.14,ESE,121,3.0,8.0,65,0.00,,---,0.00,VWS V14.01,2013-08-07 02:47:00,
2013-08-06 22:49:00,65.9,53.4,30.14,ESE,123,6.0,8.0,64,0.00,,---,0.00,VWS V14.01,2013-08-07 02:49:00,
2013-08-06 22:51:00,65.8,52.4,30.14,NNE,18,1.0,8.0,62,0.00,,---,0.00,VWS V14.01,2013-08-07 02:51:00,
2013-08-06 22:52:00,65.8,52.9,30.14,ESE,123,4.0,8.0,63,0.00,,---,0.00,VWS V14.01,2013-08-07 02:52:00,
2013-08-06 22:54:00,65.8,52.9,30.13,ESE,115,4.0,8.0,63,0.00,,---,0.00,VWS V14.01,2013-08-07 02:54:00,
2013-08-06 22:57:00,65.7,51.9,30.13,SE,125,3.0,8.0,61,0.00,,---,0.00,VWS V14.01,2013-08-07 02:57:00,
2013-08-06 22:59:00,65.6,51.4,30.14,ESE,103,4.0,5.0,60,0.00,,---,0.00,VWS V14.01,2013-08-07 02:59:00,
2013-08-06 23:00:00,65.6,51.8,30.14,SE,129,5.0,5.0,61,0.00,,---,0.00,VWS V14.01,2013-08-07 03:00:00,
2013-08-06 23:01:00,65.6,52.2,30.14,ESE,123,6.0,6.0,62,0.00,,---,0.00,VWS V14.01,2013-08-07 03:01:00,
2013-08-06 23:02:00,65.5,51.7,30.14,SE,129,3.0,6.0,61,0.00,,---,0.00,VWS V14.01,2013-08-07 03:02:00,
2013-08-06 23:03:00,59.5,53.3,30.14,North,1,1.0,2.0,80,0.00,,---,0.00,VWS V14.01,2013-08-07 03:03:00,
2013-08-06 23:04:00,59.4,52.9,30.14,North,9,1.0,2.0,79,0.00,,---,0.00,VWS V14.01,2013-08-07 03:04:00,
2013-08-06 23:05:00,65.4,51.2,30.14,SSE,159,3.0,6.0,60,0.00,,---,0.00,VWS V14.01,2013-08-07 03:05:00,
2013-08-06 23:06:00,65.4,51.2,30.14,SSE,157,3.0,6.0,60,0.00,,---,0.00,VWS V14.01,2013-08-07 03:06:00,
2013-08-06 23:07:00,59.3,52.8,30.15,North,5,0.0,2.0,79,0.00,,---,0.00,VWS V14.01,2013-08-07 03:07:00,
2013-08-06 23:08:00,65.4,52.1,30.14,ESE,108,4.0,6.0,62,0.00,,---,0.00,VWS V14.01,2013-08-07 03:08:00,
2013-08-06 23:09:00,59.4,52.9,30.15,NNE,18,1.0,2.0,79,0.00,,---,0.00,VWS V14.01,2013-08-07 03:09:00,
2013-08-06 23:10:00,65.4,51.6,30.14,ESE,115,2.0,6.0,61,0.00,,---,0.00,VWS V14.01,2013-08-07 03:10:00,
2013-08-06 23:11:00,65.4,51.6,30.14,SE,129,2.0,6.0,61,0.00,,---,0.00,VWS V14.01,2013-08-07 03:11:00,
2013-08-06 23:12:00,65.4,52.5,30.14,ESE,120,2.0,6.0,63,0.00,,---,0.00,VWS V14.01,2013-08-07 03:12:00,
2013-08-06 23:13:00,65.3,52.4,30.14,ESE,113,3.0,6.0,63,0.00,,---,0.00,VWS V14.01,2013-08-07 03:13:00,
2013-08-06 23:14:00,59.2,52.7,30.15,North,1,1.0,2.0,79,0.00,,---,0.00,VWS V14.01,2013-08-07 03:14:00,
2013-08-06 23:15:00,65.3,52.0,30.14,East,95,0.0,6.0,62,0.00,,---,0.00,VWS V14.01,2013-08-07 03:15:00,
2013-08-06 23:16:00,65.2,51.9,30.14,SSE,148,0.0,6.0,62,0.00,,---,0.00,VWS V14.01,2013-08-07 03:16:00,
2013-08-06 23:17:00,59.1,52.3,30.15,North,3,1.0,2.0,78,0.00,,---,0.00,VWS V14.01,2013-08-07 03:17:00,
2013-08-06 23:18:00,65.1,53.1,30.14,East,97,3.0,6.0,65,0.00,,---,0.00,VWS V14.01,2013-08-07 03:18:00,
2013-08-06 23:19:00,59.0,52.5,30.15,North,4,0.0,2.0,79,0.00,,---,0.00,VWS V14.01,2013-08-07 03:19:00,
2013-08-06 23:20:00,64.8,52.3,30.14,SE,141,0.0,6.0,64,0.00,,---,0.00,VWS V14.01,2013-08-07 03:20:00,
2013-08-06 23:21:00,64.7,53.1,30.14,NNE,32,1.0,6.0,66,0.00,,---,0.00,VWS V14.01,2013-08-07 03:21:00,
2013-08-06 23:22:00,58.9,52.4,30.15,North,3,1.0,2.0,79,0.00,,---,0.00,VWS V14.01,2013-08-07 03:22:00,
2013-08-06 23:23:00,64.5,53.3,30.14,North,4,1.0,6.0,67,0.00,,---,0.00,VWS V14.01,2013-08-07 03:23:00,
2013-08-06 23:26:00,63.8,53.0,30.14,NNW,338,2.0,6.0,68,0.00,,---,0.00,VWS V14.01,2013-08-07 03:26:00,
2013-08-06 23:29:00,62.9,52.6,30.14,North,352,1.0,2.0,69,0.00,,---,0.00,VWS V14.01,2013-08-07 03:29:00,
2013-08-06 23:31:00,62.6,52.7,30.14,North,353,1.0,2.0,70,0.00,,---,0.00,VWS V14.01,2013-08-07 03:31:00,
2013-08-06 23:32:00,62.3,52.8,30.14,NNW,331,2.0,2.0,71,0.00,,---,0.00,VWS V14.01,2013-08-07 03:32:00,
2013-08-06 23:35:00,62.0,52.9,30.14,North,352,1.0,2.0,72,0.00,,---,0.00,VWS V14.01,2013-08-07 03:35:00,
2013-08-06 23:36:00,61.8,52.3,30.14,NNW,333,0.0,2.0,71,0.00,,---,0.00,VWS V14.01,2013-08-07 03:36:00,
2013-08-06 23:37:00,61.7,52.2,30.14,NNW,333,0.0,2.0,71,0.00,,---,0.00,VWS V14.01,2013-08-07 03:37:00,
2013-08-06 23:38:00,61.6,51.7,30.14,NNW,340,0.0,2.0,70,0.00,,---,0.00,VWS V14.01,2013-08-07 03:38:00,
2013-08-06 23:40:00,61.6,51.7,30.14,NNW,340,0.0,2.0,70,0.00,,---,0.00,VWS V14.01,2013-08-07 03:40:00,
2013-08-06 23:42:00,61.6,51.7,30.14,NNW,340,0.0,2.0,70,0.00,,---,0.00,VWS V14.01,2013-08-07 03:42:00,
2013-08-06 23:43:00,61.6,51.7,30.14,NNW,340,0.0,2.0,70,0.00,,---,0.00,VWS V14.01,2013-08-07 03:43:00,
2013-08-06 23:44:00,61.6,51.7,30.14,NNW,340,0.0,2.0,70,0.00,,---,0.00,VWS V14.01,2013-08-07 03:44:00,
2013-08-06 23:47:00,61.6,52.5,30.14,NNW,340,0.0,2.0,72,0.00,,---,0.00,VWS V14.01,2013-08-07 03:47:00,
2013-08-06 23:48:00,61.6,52.5,30.14,NNW,340,0.0,2.0,72,0.00,,---,0.00,VWS V14.01,2013-08-07 03:48:00,
2013-08-06 23:51:00,61.3,52.6,30.14,North,355,2.0,2.0,73,0.00,,---,0.00,VWS V14.01,2013-08-07 03:51:00,
2013-08-06 23:53:00,60.9,52.9,30.14,North,353,2.0,3.0,75,0.00,,---,0.00,VWS V14.01,2013-08-07 03:53:00,
2013-08-06 23:56:00,60.3,53.4,30.14,North,349,3.0,3.0,78,0.00,,---,0.00,VWS V14.01,2013-08-07 03:56:00,
2013-08-06 23:57:00,60.0,53.1,30.14,North,356,2.0,3.0,78,0.00,,---,0.00,VWS V14.01,2013-08-07 03:57:00,
2013-08-06 23:58:00,59.9,53.4,30.14,North,356,2.0,3.0,79,0.00,,---,0.00,VWS V14.01,2013-08-07 03:58:00,